Observation data for Vigo Park on 04/23/2019      Previous  Date  Next       Current Mesonet Observations  Soil Data  Daily Summary Page  Observations in Plain Language
KVP1 230500Z 04014KT 11/11 A3008 RMK A01 T01130111  RH  098%=      5-min Rain = 0
KVP1 230501Z 04012KT 11/11 A3008 RMK A01 T01130111  RH  098%=      5-min Rain = 0
KVP1 230502Z 04012KT 11/11 A3008 RMK A01 T01130110  RH  098%=      5-min Rain = 0
KVP1 230503Z 04013KT 11/11 A3008 RMK A01 T01130111  RH  098%=      5-min Rain = 0
KVP1 230504Z 04014KT 11/11 A3008 RMK A01 T01130110  RH  098%=      5-min Rain = 0
KVP1 230505Z 04013KT 11/11 A3008 RMK A01 T01120110  RH  098%=      5-min Rain = 0
KVP1 230506Z 04015KT 11/11 A3008 RMK A01 T01130110  RH  098%=      5-min Rain = 0
KVP1 230507Z 03013KT 11/11 A3008 RMK A01 T01130110  RH  098%=      5-min Rain = 0
KVP1 230508Z 03012KT 11/11 A3008 RMK A01 T01120110  RH  099%=      5-min Rain = 0
KVP1 230509Z 03013G18KT 11/11 A3008 RMK A01 T01120110  RH  099%=      5-min Rain = 0
KVP1 230510Z 03012KT 11/11 A3008 RMK A01 T01130111  RH  099%=      5-min Rain = 0
KVP1 230511Z 03012KT 11/11 A3009 RMK A01 T01120110  RH  099%=      5-min Rain = 0
KVP1 230512Z 03013KT 11/11 A3009 RMK A01 T01130111  RH  099%=      5-min Rain = 0
KVP1 230513Z 03013KT 11/11 A3009 RMK A01 T01130111  RH  099%=      5-min Rain = 0
KVP1 230514Z 03012KT 11/11 A3009 RMK A01 T01130111  RH  099%=      5-min Rain = 0
KVP1 230515Z 03010KT 11/11 A3009 RMK A01 T01120110  RH  099%=      5-min Rain = 0
KVP1 230516Z 04013KT 11/11 A3009 RMK A01 T01130111  RH  099%=      5-min Rain = 0
KVP1 230517Z 04010KT 11/11 A3009 RMK A01 T01130111  RH  099%=      5-min Rain = 0
KVP1 230518Z 04012KT 11/11 A3009 RMK A01 T01130111  RH  099%=      5-min Rain = 0
KVP1 230519Z 04011KT 11/11 A3009 RMK A01 T01120111  RH  099%=      5-min Rain = 0
KVP1 230520Z 04011KT 11/11 A3009 RMK A01 T01120111  RH  099%=      5-min Rain = 0
KVP1 230521Z 03011KT 11/11 A3009 RMK A01 T01120111  RH  099%=      5-min Rain = 0
KVP1 230522Z 04008KT 11/11 A3009 RMK A01 T01120110  RH  099%=      5-min Rain = 0
KVP1 230523Z 04008KT 11/11 A301 RMK A01 T01120111  RH  099%=      5-min Rain = 0
KVP1 230524Z 04009KT 11/11 A301 RMK A01 T01130111  RH  099%=      5-min Rain = 0
KVP1 230525Z 03009KT 11/11 A301 RMK A01 T01130111  RH  099%=      5-min Rain = 0
KVP1 230526Z 03009KT 11/11 A301 RMK A01 T01130111  RH  099%=      5-min Rain = 0
KVP1 230527Z 03009KT 11/11 A301 RMK A01 T01120111  RH  099%=      5-min Rain = 0
KVP1 230528Z 04011KT 11/11 A301 RMK A01 T01130111  RH  099%=      5-min Rain = 0
KVP1 230529Z 03011KT 11/11 A301 RMK A01 T01130111  RH  099%=      5-min Rain = 0
KVP1 230530Z 03011KT 11/11 A301 RMK A01 T01130111  RH  098%=      5-min Rain = 0
KVP1 230531Z 03009KT 11/11 A301 RMK A01 T01130111  RH  098%=      5-min Rain = 0
KVP1 230532Z 03009KT 11/11 A301 RMK A01 T01130111  RH  098%=      5-min Rain = 0
KVP1 230533Z 03010KT 11/11 A301 RMK A01 T01130111  RH  098%=      5-min Rain = 0
KVP1 230534Z 03009KT 11/11 A301 RMK A01 T01130111  RH  099%=      5-min Rain = 0
KVP1 230535Z 03008KT 11/11 A301 RMK A01 T01130111  RH  099%=      5-min Rain = 0
KVP1 230536Z 03008KT 11/11 A3011 RMK A01 T01130111  RH  099%=      5-min Rain = 0
KVP1 230537Z 03008KT 11/11 A3011 RMK A01 T01130111  RH  099%=      5-min Rain = 0
KVP1 230538Z 02008KT 11/11 A3011 RMK A01 T01130111  RH  099%=      5-min Rain = 0
KVP1 230539Z 03010KT 11/11 A3011 RMK A01 T01130111  RH  099%=      5-min Rain = 0
KVP1 230540Z 03009KT 11/11 A3011 RMK A01 T01130111  RH  099%=      5-min Rain = 0
KVP1 230541Z 03009KT 11/11 A3011 RMK A01 T01140112  RH  099%=      5-min Rain = 0
KVP1 230542Z 02007KT 11/11 A301 RMK A01 T01130111  RH  099%=      5-min Rain = 0
KVP1 230543Z 02008KT 11/11 A301 RMK A01 T01130112  RH  099%=      5-min Rain = 0
KVP1 230544Z 02009KT 11/11 A301 RMK A01 T01140112  RH  099%=      5-min Rain = 0
KVP1 230545Z 02008KT 11/11 A301 RMK A01 T01140112  RH  099%=      5-min Rain = 0
KVP1 230546Z 02010KT 11/11 A301 RMK A01 T01130112  RH  099%=      5-min Rain = 0
KVP1 230547Z 02009KT 11/11 A301 RMK A01 T01130111  RH  099%=      5-min Rain = 0
KVP1 230548Z 02010KT 11/11 A301 RMK A01 T01140111  RH  099%=      5-min Rain = 0
KVP1 230549Z 02012KT 11/11 A301 RMK A01 T01140111  RH  098%=      5-min Rain = 0
KVP1 230550Z 02012KT 11/11 A301 RMK A01 T01130111  RH  098%=      5-min Rain = 0
KVP1 230551Z 02010KT 11/11 A301 RMK A01 T01140111  RH  098%=      5-min Rain = 0
KVP1 230552Z 02010KT 11/11 A301 RMK A01 T01140111  RH  098%=      5-min Rain = 0
KVP1 230553Z 02011KT 11/11 A3009 RMK A01 T01140110  RH  098%=      5-min Rain = 0
KVP1 230554Z 02010KT 11/11 A301 RMK A01 T01140110  RH  098%=      5-min Rain = 0
KVP1 230555Z 02011KT 11/11 A301 RMK A01 T01140110  RH  098%=      5-min Rain = 0
KVP1 230556Z 02011KT 11/11 A301 RMK A01 T01140110  RH  097%=      5-min Rain = 0
KVP1 230557Z 02011KT 11/11 A301 RMK A01 T01140110  RH  097%=      5-min Rain = 0
KVP1 230558Z 02009KT 11/11 A301 RMK A01 T01140110  RH  097%=      5-min Rain = 0
KVP1 230559Z 03011KT 11/11 A301 RMK A01 T01140110  RH  097%=      5-min Rain = 0
KVP1 230600Z 03009KT 12/11 A301 RMK A01 T01150110  RH  097%=      5-min Rain = 0
KVP1 230601Z 03010KT 11/11 A301 RMK A01 T01140110  RH  097%=      5-min Rain = 0
KVP1 230602Z 03012KT 12/11 A3009 RMK A01 T01150111  RH  097%=      5-min Rain = 0
KVP1 230603Z 03011KT 11/11 A3009 RMK A01 T01140110  RH  097%=      5-min Rain = 0
KVP1 230604Z 03014KT 11/11 A3009 RMK A01 T01140110  RH  097%=      5-min Rain = 0
KVP1 230605Z 03012KT 11/11 A3009 RMK A01 T01140110  RH  097%=      5-min Rain = 0
KVP1 230606Z 03014KT 11/11 A3008 RMK A01 T01140110  RH  097%=      5-min Rain = 0
KVP1 230607Z 03014KT 11/11 A3008 RMK A01 T01140110  RH  097%=      5-min Rain = 0
KVP1 230608Z 03013KT 12/11 A3008 RMK A01 T01150110  RH  097%=      5-min Rain = 0
KVP1 230609Z 03012KT 11/11 A3007 RMK A01 T01140110  RH  097%=      5-min Rain = 0
KVP1 230610Z 03017KT 11/11 A3007 RMK A01 T01140110  RH  097%=      5-min Rain = 0
KVP1 230611Z 03013G18KT 11/11 A3007 RMK A01 T01140110  RH  097%=      5-min Rain = 0
KVP1 230612Z 03014KT 11/11 A3007 RMK A01 T01140110  RH  097%=      5-min Rain = 0
KVP1 230613Z 03014KT 11/11 A3007 RMK A01 T01140110  RH  097%=      5-min Rain = 0
KVP1 230614Z 03012KT 11/11 A3007 RMK A01 T01140109  RH  097%=      5-min Rain = 0
KVP1 230615Z 03011KT 11/11 A3007 RMK A01 T01140109  RH  097%=      5-min Rain = 0
KVP1 230616Z 03011KT 11/11 A3007 RMK A01 T01140110  RH  097%=      5-min Rain = 0
KVP1 230617Z 03013KT 11/11 A3007 RMK A01 T01140110  RH  097%=      5-min Rain = 0
KVP1 230618Z 04010KT 11/11 A3008 RMK A01 T01130109  RH  097%=      5-min Rain = 0
KVP1 230619Z 03009G14KT 11/11 A3008 RMK A01 T01140109  RH  097%=      5-min Rain = 0
KVP1 230620Z 03010KT 11/11 A3008 RMK A01 T01130109  RH  097%=      5-min Rain = 0
KVP1 230621Z 03010KT 11/11 A3008 RMK A01 T01130109  RH  097%=      5-min Rain = 0
KVP1 230622Z 02011KT 11/11 A3008 RMK A01 T01130110  RH  097%=      5-min Rain = 0
KVP1 230623Z 03012G17KT 11/11 A3008 RMK A01 T01130110  RH  098%=      5-min Rain = 0
KVP1 230624Z 02011KT 11/11 A3008 RMK A01 T01140110  RH  098%=      5-min Rain = 0
KVP1 230625Z 03012G18KT 11/11 A3008 RMK A01 T01130110  RH  098%=      5-min Rain = 0
KVP1 230626Z 02012KT 11/11 A3008 RMK A01 T01140110  RH  097%=      5-min Rain = 0
KVP1 230627Z 02012KT 11/11 A3008 RMK A01 T01140109  RH  097%=      5-min Rain = 0
KVP1 230628Z 02012KT 11/11 A3008 RMK A01 T01140109  RH  097%=      5-min Rain = 0
KVP1 230629Z 02009G14KT 11/11 A3008 RMK A01 T01140109  RH  097%=      5-min Rain = 0
KVP1 230630Z 02011KT 11/11 A3008 RMK A01 T01140110  RH  097%=      5-min Rain = 0
KVP1 230631Z 02012KT 11/11 A3008 RMK A01 T01140109  RH  097%=      5-min Rain = 0
KVP1 230632Z 02013KT 11/11 A3008 RMK A01 T01140109  RH  097%=      5-min Rain = 0
KVP1 230633Z 02013KT 11/11 A3008 RMK A01 T01140109  RH  097%=      5-min Rain = 0
KVP1 230634Z 02012KT 11/11 A3008 RMK A01 T01140109  RH  097%=      5-min Rain = 0
KVP1 230635Z 01011KT 11/11 A3007 RMK A01 T01140109  RH  097%=      5-min Rain = 0
KVP1 230636Z 01012KT 11/11 A3007 RMK A01 T01140109  RH  097%=      5-min Rain = 0
KVP1 230637Z 02012KT 11/11 A3007 RMK A01 T01140109  RH  097%=      5-min Rain = 0
KVP1 230638Z 02010KT 11/11 A3007 RMK A01 T01140109  RH  097%=      5-min Rain = 0
KVP1 230639Z 02012G17KT 11/11 A3007 RMK A01 T01140109  RH  097%=      5-min Rain = 0
KVP1 230640Z 02012G17KT 11/11 A3007 RMK A01 T01140110  RH  097%=      5-min Rain = 0
KVP1 230641Z 02013KT 11/11 A3007 RMK A01 T01140109  RH  097%=      5-min Rain = 0
KVP1 230642Z 02012KT 11/11 A3007 RMK A01 T01140110  RH  097%=      5-min Rain = 0
KVP1 230643Z 02012KT 11/11 A3007 RMK A01 T01140110  RH  097%=      5-min Rain = 0
KVP1 230644Z 01012KT 11/11 A3007 RMK A01 T01140110  RH  097%=      5-min Rain = 0
KVP1 230645Z 02012KT 11/11 A3007 RMK A01 T01140110  RH  097%=      5-min Rain = 0
KVP1 230646Z 02013G18KT 11/11 A3007 RMK A01 T01140110  RH  097%=      5-min Rain = 0
KVP1 230647Z 02013KT 11/11 A3007 RMK A01 T01140110  RH  097%=      5-min Rain = 0
KVP1 230648Z 02012KT 11/11 A3007 RMK A01 T01140110  RH  097%=      5-min Rain = 0
KVP1 230649Z 02010KT 11/11 A3007 RMK A01 T01140110  RH  097%=      5-min Rain = 0
KVP1 230650Z 02010KT 11/11 A3007 RMK A01 T01140110  RH  097%=      5-min Rain = 0
KVP1 230651Z 01009KT 11/11 A3007 RMK A01 T01140110  RH  097%=      5-min Rain = 0
KVP1 230652Z 01009KT 11/11 A3008 RMK A01 T01140110  RH  097%=      5-min Rain = 0
KVP1 230653Z 01009KT 11/11 A3008 RMK A01 T01140111  RH  098%=      5-min Rain = 0
KVP1 230654Z 01010KT 11/11 A3008 RMK A01 T01140111  RH  098%=      5-min Rain = 0
KVP1 230655Z 01010KT 12/11 A3008 RMK A01 T01150111  RH  098%=      5-min Rain = 0
KVP1 230656Z 01009KT 12/11 A3008 RMK A01 T01150111  RH  098%=      5-min Rain = 0
KVP1 230657Z 01010KT 12/11 A3008 RMK A01 T01150111  RH  098%=      5-min Rain = 0
KVP1 230658Z 02010KT 12/11 A3008 RMK A01 T01150111  RH  097%=      5-min Rain = 0
KVP1 230659Z 01010KT 12/11 A3008 RMK A01 T01150111  RH  097%=      5-min Rain = 0
KVP1 230700Z 02009KT 12/11 A3008 RMK A01 T01150111  RH  097%=      5-min Rain = 0
KVP1 230701Z 02008KT 12/11 A3008 RMK A01 T01150111  RH  097%=      5-min Rain = 0
KVP1 230702Z 02008KT 12/11 A3008 RMK A01 T01150111  RH  097%=      5-min Rain = 0
KVP1 230703Z 01009G14KT 12/11 A3008 RMK A01 T01150111  RH  097%=      5-min Rain = 0
KVP1 230704Z 01008KT 12/11 A3008 RMK A01 T01150111  RH  097%=      5-min Rain = 0
KVP1 230705Z 01009KT 12/11 A3008 RMK A01 T01160111  RH  097%=      5-min Rain = 0
KVP1 230706Z 02010KT 12/11 A3008 RMK A01 T01160111  RH  097%=      5-min Rain = 0
KVP1 230707Z 02008KT 12/11 A3008 RMK A01 T01160111  RH  097%=      5-min Rain = 0
KVP1 230708Z 02009KT 12/11 A3008 RMK A01 T01160111  RH  097%=      5-min Rain = 0
KVP1 230709Z 01010KT 12/11 A3008 RMK A01 T01160112  RH  097%=      5-min Rain = 0
KVP1 230710Z 02008KT 12/11 A3008 RMK A01 T01160111  RH  097%=      5-min Rain = 0
KVP1 230711Z 02008KT 12/11 A3008 RMK A01 T01160111  RH  097%=      5-min Rain = 0
KVP1 230712Z 02007KT 12/11 A3008 RMK A01 T01160112  RH  097%=      5-min Rain = 0
KVP1 230713Z 02008KT 12/11 A3008 RMK A01 T01160112  RH  097%=      5-min Rain = 0
KVP1 230714Z 02008KT 12/11 A3008 RMK A01 T01160112  RH  097%=      5-min Rain = 0
KVP1 230715Z 03008KT 12/11 A3008 RMK A01 T01160112  RH  097%=      5-min Rain = 0
KVP1 230716Z 03008KT 12/11 A3008 RMK A01 T01160112  RH  097%=      5-min Rain = 0
KVP1 230717Z 03009KT 12/11 A3008 RMK A01 T01170112  RH  097%=      5-min Rain = 0
KVP1 230718Z 04010KT 12/11 A3008 RMK A01 T01170112  RH  097%=      5-min Rain = 0
KVP1 230719Z 04009KT 12/11 A3008 RMK A01 T01170112  RH  097%=      5-min Rain = 0
KVP1 230720Z 05006KT 12/11 A3008 RMK A01 T01170112  RH  097%=      5-min Rain = 0
KVP1 230721Z 04007KT 12/11 A3008 RMK A01 T01170112  RH  097%=      5-min Rain = 0
KVP1 230722Z 04007KT 12/11 A3008 RMK A01 T01160112  RH  097%=      5-min Rain = 0
KVP1 230723Z 04008KT 12/11 A3008 RMK A01 T01170112  RH  097%=      5-min Rain = 0
KVP1 230724Z 04011KT 12/11 A3008 RMK A01 T01170112  RH  097%=      5-min Rain = 0
KVP1 230725Z 04010KT 12/11 A3008 RMK A01 T01170112  RH  097%=      5-min Rain = 0
KVP1 230726Z 04010KT 12/11 A3008 RMK A01 T01170112  RH  096%=      5-min Rain = 0
KVP1 230727Z 05011KT 12/11 A3008 RMK A01 T01180112  RH  096%=      5-min Rain = 0
KVP1 230728Z 04011KT 12/11 A3008 RMK A01 T01180112  RH  096%=      5-min Rain = 0
KVP1 230729Z 04010KT 12/11 A3008 RMK A01 T01170111  RH  096%=      5-min Rain = 0
KVP1 230730Z 04009KT 12/11 A3008 RMK A01 T01170111  RH  096%=      5-min Rain = 0
KVP1 230731Z 04009KT 12/11 A3008 RMK A01 T01170111  RH  096%=      5-min Rain = 0
KVP1 230732Z 04010KT 12/11 A3008 RMK A01 T01170112  RH  096%=      5-min Rain = 0
KVP1 230733Z 04009KT 12/11 A3008 RMK A01 T01180112  RH  096%=      5-min Rain = 0
KVP1 230734Z 04009KT 12/11 A3008 RMK A01 T01170112  RH  096%=      5-min Rain = 0
KVP1 230735Z 04010KT 12/11 A3008 RMK A01 T01170112  RH  097%=      5-min Rain = 0
KVP1 230736Z 03009KT 12/11 A3008 RMK A01 T01170112  RH  097%=      5-min Rain = 0
KVP1 230737Z 04008KT 12/11 A3007 RMK A01 T01170112  RH  097%=      5-min Rain = 0
KVP1 230738Z 04011KT 12/11 A3007 RMK A01 T01170113  RH  097%=      5-min Rain = 0
KVP1 230739Z 04012KT 12/11 A3007 RMK A01 T01170113  RH  097%=      5-min Rain = 0
KVP1 230740Z 04012KT 12/11 A3006 RMK A01 T01170113  RH  097%=      5-min Rain = 0
KVP1 230741Z 04011KT 12/11 A3006 RMK A01 T01170113  RH  097%=      5-min Rain = 0
KVP1 230742Z 04013KT 12/11 A3006 RMK A01 T01170112  RH  097%=      5-min Rain = 0
KVP1 230743Z 04013KT 12/11 A3006 RMK A01 T01170112  RH  097%=      5-min Rain = 0
KVP1 230744Z 03012KT 12/11 A3006 RMK A01 T01170112  RH  097%=      5-min Rain = 0
KVP1 230745Z 04013KT 12/11 A3006 RMK A01 T01170112  RH  097%=      5-min Rain = 0
KVP1 230746Z 04012KT 12/11 A3006 RMK A01 T01170112  RH  097%=      5-min Rain = 0
KVP1 230747Z 03012KT 12/11 A3006 RMK A01 T01170112  RH  097%=      5-min Rain = 0
KVP1 230748Z 03012KT 12/11 A3006 RMK A01 T01170112  RH  097%=      5-min Rain = 0
KVP1 230749Z 03010KT 12/11 A3006 RMK A01 T01160113  RH  097%=      5-min Rain = 0
KVP1 230750Z 03012KT 12/11 A3006 RMK A01 T01160113  RH  098%=      5-min Rain = 0
KVP1 230751Z 03011KT 12/11 A3006 RMK A01 T01160113  RH  098%=      5-min Rain = 0
KVP1 230752Z 03010KT 12/11 A3007 RMK A01 T01160113  RH  098%=      5-min Rain = 0.01
KVP1 230753Z 03009KT 12/11 A3007 RMK A01 T01160113  RH  098%=      5-min Rain = 0
KVP1 230754Z 03011KT 12/11 A3007 RMK A01 T01160113  RH  098%=      5-min Rain = 0
KVP1 230755Z 03008KT 12/11 A3007 RMK A01 T01160113  RH  098%=      5-min Rain = 0
KVP1 230756Z 02009KT 12/11 A3007 RMK A01 T01160113  RH  098%=      5-min Rain = 0
KVP1 230757Z 02008KT 12/11 A3007 RMK A01 T01160113  RH  098%=      5-min Rain = 0
KVP1 230758Z 03009KT 12/11 A3007 RMK A01 T01160113  RH  098%=      5-min Rain = 0
KVP1 230759Z 03010KT 12/11 A3007 RMK A01 T01160113  RH  098%=      5-min Rain = 0
KVP1 230800Z 03008KT 12/11 A3007 RMK A01 T01160113  RH  098%=      5-min Rain = 0
KVP1 230801Z 03008KT 12/11 A3007 RMK A01 T01160113  RH  098%=      5-min Rain = 0
KVP1 230802Z 03009KT 12/11 A3007 RMK A01 T01160113  RH  098%=      5-min Rain = 0
KVP1 230803Z 02008KT 12/11 A3007 RMK A01 T01160113  RH  098%=      5-min Rain = 0
KVP1 230804Z 02009KT 12/11 A3007 RMK A01 T01160113  RH  098%=      5-min Rain = 0
KVP1 230805Z 03008KT 12/11 A3007 RMK A01 T01160113  RH  098%=      5-min Rain = 0
KVP1 230806Z 02008KT 12/11 A3006 RMK A01 T01160113  RH  098%=      5-min Rain = 0
KVP1 230807Z 03008KT 12/11 A3006 RMK A01 T01160113  RH  098%=      5-min Rain = 0
KVP1 230808Z 02009KT 12/11 A3006 RMK A01 T01160113  RH  098%=      5-min Rain = 0
KVP1 230809Z 03009KT 12/11 A3006 RMK A01 T01160113  RH  098%=      5-min Rain = 0
KVP1 230810Z 03011KT 12/11 A3006 RMK A01 T01160113  RH  098%=      5-min Rain = 0
KVP1 230811Z 03008KT 12/11 A3006 RMK A01 T01160113  RH  098%=      5-min Rain = 0
KVP1 230812Z 03008KT 12/11 A3006 RMK A01 T01160113  RH  098%=      5-min Rain = 0
KVP1 230813Z 03008KT 12/11 A3006 RMK A01 T01160113  RH  098%=      5-min Rain = 0
KVP1 230814Z 03007KT 12/11 A3006 RMK A01 T01160113  RH  098%=      5-min Rain = 0
KVP1 230815Z 03009KT 12/11 A3006 RMK A01 T01160113  RH  098%=      5-min Rain = 0
KVP1 230816Z 02009KT 12/11 A3006 RMK A01 T01160113  RH  098%=      5-min Rain = 0
KVP1 230817Z 03009KT 12/11 A3006 RMK A01 T01160113  RH  098%=      5-min Rain = 0
KVP1 230818Z 02010KT 12/11 A3006 RMK A01 T01160113  RH  098%=      5-min Rain = 0
KVP1 230819Z 02009KT 12/11 A3006 RMK A01 T01160113  RH  098%=      5-min Rain = 0
KVP1 230820Z 03008KT 12/11 A3006 RMK A01 T01160112  RH  098%=      5-min Rain = 0
KVP1 230821Z 02009KT 12/11 A3006 RMK A01 T01160113  RH  098%=      5-min Rain = 0
KVP1 230822Z 02008KT 12/11 A3006 RMK A01 T01160113  RH  098%=      5-min Rain = 0
KVP1 230823Z 02008KT 12/11 A3006 RMK A01 T01160113  RH  098%=      5-min Rain = 0
KVP1 230824Z 02007KT 12/11 A3006 RMK A01 T01160113  RH  098%=      5-min Rain = 0
KVP1 230825Z 02008KT 12/11 A3006 RMK A01 T01160113  RH  098%=      5-min Rain = 0
KVP1 230826Z 02009KT 12/11 A3006 RMK A01 T01160113  RH  098%=      5-min Rain = 0
KVP1 230827Z 02009KT 12/11 A3006 RMK A01 T01160113  RH  098%=      5-min Rain = 0
KVP1 230828Z 02008KT 12/11 A3006 RMK A01 T01160113  RH  098%=      5-min Rain = 0
KVP1 230829Z 02008KT 12/11 A3006 RMK A01 T01170113  RH  097%=      5-min Rain = 0
KVP1 230830Z 01006KT 12/11 A3006 RMK A01 T01170113  RH  097%=      5-min Rain = 0
KVP1 230831Z 02008KT 12/11 A3006 RMK A01 T01170113  RH  097%=      5-min Rain = 0
KVP1 230832Z 02009KT 12/11 A3006 RMK A01 T01170112  RH  097%=      5-min Rain = 0
KVP1 230833Z 02007KT 12/11 A3006 RMK A01 T01170112  RH  097%=      5-min Rain = 0
KVP1 230834Z 01007KT 12/11 A3006 RMK A01 T01170112  RH  097%=      5-min Rain = 0
KVP1 230835Z 01006KT 12/11 A3006 RMK A01 T01170113  RH  097%=      5-min Rain = 0
KVP1 230836Z 01006KT 12/11 A3006 RMK A01 T01170112  RH  097%=      5-min Rain = 0
KVP1 230837Z 01005KT 12/11 A3006 RMK A01 T01160113  RH  098%=      5-min Rain = 0
KVP1 230838Z 01006KT 12/11 A3006 RMK A01 T01170113  RH  098%=      5-min Rain = 0
KVP1 230839Z 36009KT 12/11 A3006 RMK A01 T01170113  RH  098%=      5-min Rain = 0
KVP1 230840Z 00009KT 12/11 A3006 RMK A01 T01170113  RH  098%=      5-min Rain = 0
KVP1 230841Z 00007KT 12/11 A3005 RMK A01 T01170113  RH  098%=      5-min Rain = 0
KVP1 230842Z 01007KT 12/11 A3005 RMK A01 T01170113  RH  098%=      5-min Rain = 0
KVP1 230843Z 02007KT 12/11 A3005 RMK A01 T01170113  RH  098%=      5-min Rain = 0
KVP1 230844Z 02010KT 12/11 A3005 RMK A01 T01170113  RH  098%=      5-min Rain = 0
KVP1 230845Z 02009KT 12/11 A3005 RMK A01 T01170113  RH  098%=      5-min Rain = 0
KVP1 230846Z 02009KT 12/11 A3005 RMK A01 T01160113  RH  098%=      5-min Rain = 0.01
KVP1 230847Z 02010KT 12/11 A3005 RMK A01 T01170113  RH  098%=      5-min Rain = 0
KVP1 230848Z 02010KT 12/11 A3005 RMK A01 T01170114  RH  098%=      5-min Rain = 0
KVP1 230849Z 02009KT 12/11 A3005 RMK A01 T01160114  RH  098%=      5-min Rain = 0.01
KVP1 230850Z 02010KT 12/11 A3005 RMK A01 T01170114  RH  098%=      5-min Rain = 0
KVP1 230851Z 02009KT 12/11 A3005 RMK A01 T01160114  RH  098%=      5-min Rain = 0
KVP1 230852Z 02009KT 12/11 A3005 RMK A01 T01160114  RH  099%=      5-min Rain = 0
KVP1 230853Z 02009KT 12/11 A3005 RMK A01 T01160114  RH  099%=      5-min Rain = 0.01
KVP1 230854Z 02008KT 12/11 A3005 RMK A01 T01160114  RH  099%=      5-min Rain = 0
KVP1 230855Z 02009KT 12/12 A3005 RMK A01 T01160115  RH  099%=      5-min Rain = 0
KVP1 230856Z 02009KT 12/12 A3005 RMK A01 T01160115  RH  099%=      5-min Rain = 0
KVP1 230857Z 02009KT 12/12 A3005 RMK A01 T01160115  RH  099%=      5-min Rain = 0
KVP1 230858Z 02008KT 12/12 A3005 RMK A01 T01160115  RH  099%=      5-min Rain = 0
KVP1 230859Z 02010KT 12/12 A3005 RMK A01 T01160115  RH  099%=      5-min Rain = 0
KVP1 230900Z 02009KT 12/12 A3005 RMK A01 T01160115  RH  099%=      5-min Rain = 0
KVP1 230901Z 02009KT 12/12 A3005 RMK A01 T01160115  RH  099%=      5-min Rain = 0
KVP1 230902Z 01007KT 12/12 A3005 RMK A01 T01160115  RH  099%=      5-min Rain = 0.01
KVP1 230903Z 02008KT 12/12 A3005 RMK A01 T01160115  RH  099%=      5-min Rain = 0
KVP1 230904Z 02008KT 12/12 A3005 RMK A01 T01160115  RH  099%=      5-min Rain = 0
KVP1 230905Z 02008KT 12/12 A3005 RMK A01 T01160115  RH  099%=      5-min Rain = 0
KVP1 230906Z 02010KT 12/12 A3005 RMK A01 T01160115  RH  099%=      5-min Rain = 0
KVP1 230907Z 03009KT 12/12 A3005 RMK A01 T01160115  RH  099%=      5-min Rain = 0
KVP1 230908Z 02009KT 12/12 A3005 RMK A01 T01160115  RH  099%=      5-min Rain = 0
KVP1 230909Z 02010KT 12/12 A3004 RMK A01 T01160115  RH  099%=      5-min Rain = 0
KVP1 230910Z 02010KT 12/12 A3004 RMK A01 T01160115  RH  099%=      5-min Rain = 0
KVP1 230911Z 02010KT 12/12 A3004 RMK A01 T01160115  RH  099%=      5-min Rain = 0
KVP1 230912Z 03010KT 12/12 A3004 RMK A01 T01160115  RH  099%=      5-min Rain = 0
KVP1 230913Z 03009KT 12/12 A3004 RMK A01 T01160115  RH  099%=      5-min Rain = 0
KVP1 230914Z 03009KT 12/12 A3004 RMK A01 T01160115  RH  099%=      5-min Rain = 0
KVP1 230915Z 03010KT 12/12 A3004 RMK A01 T01160115  RH  099%=      5-min Rain = 0
KVP1 230916Z 03011KT 12/12 A3004 RMK A01 T01160116  RH  100%=      5-min Rain = 0
KVP1 230917Z 03012KT 12/12 A3004 RMK A01 T01160116  RH  100%=      5-min Rain = 0
KVP1 230918Z 04010KT 12/12 A3004 RMK A01 T01160115  RH  099%=      5-min Rain = 0.01
KVP1 230919Z 04011KT 12/12 A3004 RMK A01 T01160116  RH  100%=      5-min Rain = 0
KVP1 230920Z 04010KT 12/12 A3004 RMK A01 T01160116  RH  099%=      5-min Rain = 0
KVP1 230921Z 04009KT 12/12 A3004 RMK A01 T01160115  RH  100%=      5-min Rain = 0
KVP1 230922Z 03009KT 12/12 A3004 RMK A01 T01170116  RH  100%=      5-min Rain = 0
KVP1 230923Z 03011G16KT 12/12 A3004 RMK A01 T01170116  RH  100%=      5-min Rain = 0.01
KVP1 230924Z 03012KT 12/12 A3004 RMK A01 T01170116  RH  100%=      5-min Rain = 0
KVP1 230925Z 04009KT 12/12 A3004 RMK A01 T01170116  RH  100%=      5-min Rain = 0
KVP1 230926Z 03010KT 12/12 A3004 RMK A01 T01170116  RH  100%=      5-min Rain = 0
KVP1 230927Z 03010KT 12/12 A3004 RMK A01 T01170117  RH  100%=      5-min Rain = 0
KVP1 230928Z 02009KT 12/12 A3004 RMK A01 T01170117  RH  100%=      5-min Rain = 0.01
KVP1 230929Z 03011KT 12/12 A3004 RMK A01 T01170117  RH  100%=      5-min Rain = 0
KVP1 230930Z 03009KT 12/12 A3004 RMK A01 T01170117  RH  100%=      5-min Rain = 0
KVP1 230931Z 03008KT 12/12 A3005 RMK A01 T01170117  RH  100%=      5-min Rain = 0
KVP1 230932Z 03008KT 12/12 A3005 RMK A01 T01170116  RH  100%=      5-min Rain = 0.01
KVP1 230933Z 03007KT 12/12 A3005 RMK A01 T01170116  RH  100%=      5-min Rain = 0
KVP1 230934Z 03008KT 12/12 A3005 RMK A01 T01170116  RH  100%=      5-min Rain = 0
KVP1 230935Z 02005KT 12/12 A3006 RMK A01 T01170117  RH  100%=      5-min Rain = 0
KVP1 230936Z 02005KT 12/12 A3006 RMK A01 T01170117  RH  100%=      5-min Rain = 0
KVP1 230937Z 03007KT 12/12 A3006 RMK A01 T01170117  RH  100%=      5-min Rain = 0
KVP1 230938Z 02008KT 12/12 A3006 RMK A01 T01170117  RH  100%=      5-min Rain = 0.01
KVP1 230939Z 02007KT 12/12 A3006 RMK A01 T01170117  RH  100%=      5-min Rain = 0
KVP1 230940Z 02006KT 12/12 A3006 RMK A01 T01170117  RH  100%=      5-min Rain = 0
KVP1 230941Z 02006KT 12/12 A3006 RMK A01 T01180117  RH  100%=      5-min Rain = 0
KVP1 230942Z 02006KT 12/12 A3006 RMK A01 T01170117  RH  100%=      5-min Rain = 0
KVP1 230943Z 02007KT 12/12 A3006 RMK A01 T01180117  RH  100%=      5-min Rain = 0
KVP1 230944Z 02007KT 12/12 A3006 RMK A01 T01180117  RH  100%=      5-min Rain = 0.01
KVP1 230945Z 02009KT 12/12 A3006 RMK A01 T01180117  RH  100%=      5-min Rain = 0
KVP1 230946Z 02006KT 12/12 A3006 RMK A01 T01180118  RH  100%=      5-min Rain = 0
KVP1 230947Z 02007KT 12/12 A3006 RMK A01 T01170117  RH  100%=      5-min Rain = 0
KVP1 230948Z 02006KT 12/12 A3006 RMK A01 T01170117  RH  100%=      5-min Rain = 0.01
KVP1 230949Z 01004KT 12/12 A3006 RMK A01 T01180118  RH  100%=      5-min Rain = 0
KVP1 230950Z 01004KT 12/12 A3006 RMK A01 T01170118  RH  100%=      5-min Rain = 0
KVP1 230951Z 01005KT 12/12 A3007 RMK A01 T01180118  RH  100%=      5-min Rain = 0
KVP1 230952Z 02005KT 12/12 A3007 RMK A01 T01180118  RH  100%=      5-min Rain = 0.01
KVP1 230953Z 01007KT 12/12 A3007 RMK A01 T01180118  RH  100%=      5-min Rain = 0
KVP1 230954Z 01006KT 12/12 A3007 RMK A01 T01170118  RH  100%=      5-min Rain = 0
KVP1 230955Z 01006KT 12/12 A3007 RMK A01 T01170117  RH  100%=      5-min Rain = 0.01
KVP1 230956Z 01006KT 12/12 A3007 RMK A01 T01170118  RH  100%=      5-min Rain = 0
KVP1 230957Z 01005KT 12/12 A3007 RMK A01 T01170118  RH  100%=      5-min Rain = 0
KVP1 230958Z 01006KT 12/12 A3007 RMK A01 T01170117  RH  100%=      5-min Rain = 0.01
KVP1 230959Z 02006KT 12/12 A3007 RMK A01 T01170117  RH  100%=      5-min Rain = 0
KVP1 231000Z 01005KT 12/12 A3007 RMK A01 T01170117  RH  100%=      5-min Rain = 0
KVP1 231001Z 01006KT 12/12 A3007 RMK A01 T01170117  RH  100%=      5-min Rain = 0.01
KVP1 231002Z 01006KT 12/12 A3007 RMK A01 T01170117  RH  100%=      5-min Rain = 0
KVP1 231003Z 01006KT 12/12 A3007 RMK A01 T01170117  RH  100%=      5-min Rain = 0.01
KVP1 231004Z 02008KT 12/12 A3007 RMK A01 T01170117  RH  100%=      5-min Rain = 0.01
KVP1 231005Z 02007KT 12/12 A3007 RMK A01 T01170117  RH  100%=      5-min Rain = 0
KVP1 231006Z 02007KT 12/12 A3007 RMK A01 T01170117  RH  100%=      5-min Rain = 0.01
KVP1 231007Z 02007KT 12/12 A3007 RMK A01 T01170117  RH  100%=      5-min Rain = 0.01
KVP1 231008Z 02007KT 12/12 A3006 RMK A01 T01170117  RH  100%=      5-min Rain = 0.01
KVP1 231009Z 03007KT 12/12 A3006 RMK A01 T01170117  RH  100%=      5-min Rain = 0.01
KVP1 231010Z 02008KT 12/12 A3006 RMK A01 T01170117  RH  100%=      5-min Rain = 0
KVP1 231011Z 03008KT 12/12 A3006 RMK A01 T01170117  RH  100%=      5-min Rain = 0.01
KVP1 231012Z 03010KT 12/12 A3006 RMK A01 T01170117  RH  100%=      5-min Rain = 0.01
KVP1 231013Z 03011KT 12/12 A3006 RMK A01 T01170117  RH  100%=      5-min Rain = 0
KVP1 231014Z 03010KT 12/12 A3006 RMK A01 T01160117  RH  100%=      5-min Rain = 0.01
KVP1 231015Z 03010KT 12/12 A3006 RMK A01 T01170117  RH  100%=      5-min Rain = 0.01
KVP1 231016Z 03010KT 12/12 A3006 RMK A01 T01160117  RH  100%=      5-min Rain = 0.01
KVP1 231017Z 03010KT 12/12 A3006 RMK A01 T01160116  RH  100%=      5-min Rain = 0
KVP1 231018Z 03010KT 12/12 A3006 RMK A01 T01160117  RH  100%=      5-min Rain = 0.01
KVP1 231019Z 02010KT 12/12 A3006 RMK A01 T01170117  RH  100%=      5-min Rain = 0.01
KVP1 231020Z 02010KT 12/12 A3006 RMK A01 T01170117  RH  100%=      5-min Rain = 0
KVP1 231021Z 02010KT 12/12 A3006 RMK A01 T01170117  RH  100%=      5-min Rain = 0.01
KVP1 231022Z 02010KT 12/12 A3005 RMK A01 T01160116  RH  100%=      5-min Rain = 0
KVP1 231023Z 02010KT 12/12 A3005 RMK A01 T01160116  RH  100%=      5-min Rain = 0.01
KVP1 231024Z 01009KT 12/12 A3005 RMK A01 T01160116  RH  100%=      5-min Rain = 0
KVP1 231025Z 02010KT 12/12 A3005 RMK A01 T01160116  RH  100%=      5-min Rain = 0
KVP1 231026Z 02011KT 12/12 A3005 RMK A01 T01160116  RH  100%=      5-min Rain = 0.01
KVP1 231027Z 02010KT 12/12 A3005 RMK A01 T01160116  RH  100%=      5-min Rain = 0
KVP1 231028Z 02010KT 12/12 A3005 RMK A01 T01160116  RH  100%=      5-min Rain = 0.01
KVP1 231029Z 02010KT 12/12 A3004 RMK A01 T01160116  RH  100%=      5-min Rain = 0
KVP1 231030Z 01009KT 12/12 A3004 RMK A01 T01160116  RH  100%=      5-min Rain = 0.01
KVP1 231031Z 01010KT 12/12 A3004 RMK A01 T01160116  RH  100%=      5-min Rain = 0
KVP1 231032Z 01011KT 12/12 A3004 RMK A01 T01160116  RH  100%=      5-min Rain = 0.01
KVP1 231033Z 01010KT 12/12 A3004 RMK A01 T01160116  RH  100%=      5-min Rain = 0
KVP1 231034Z 01012KT 12/12 A3003 RMK A01 T01160116  RH  100%=      5-min Rain = 0
KVP1 231035Z 01012KT 12/12 A3003 RMK A01 T01160116  RH  100%=      5-min Rain = 0.01
KVP1 231036Z 01010KT 12/12 A3003 RMK A01 T01160116  RH  100%=      5-min Rain = 0
KVP1 231037Z 01011KT 12/12 A3003 RMK A01 T01160116  RH  100%=      5-min Rain = 0
KVP1 231038Z 01011KT 12/12 A3003 RMK A01 T01160116  RH  100%=      5-min Rain = 0
KVP1 231039Z 01011KT 12/12 A3003 RMK A01 T01160116  RH  100%=      5-min Rain = 0
KVP1 231040Z 01010KT 12/12 A3003 RMK A01 T01160116  RH  100%=      5-min Rain = 0.01
KVP1 231041Z 01011KT 12/12 A3002 RMK A01 T01160116  RH  100%=      5-min Rain = 0
KVP1 231042Z 01012KT 12/12 A3002 RMK A01 T01160116  RH  100%=      5-min Rain = 0
KVP1 231043Z 01012KT 12/12 A3002 RMK A01 T01160116  RH  100%=      5-min Rain = 0
KVP1 231044Z 02011KT 12/12 A3002 RMK A01 T01160116  RH  100%=      5-min Rain = 0
KVP1 231045Z 01010KT 12/12 A3002 RMK A01 T01160116  RH  100%=      5-min Rain = 0
KVP1 231046Z 01009KT 12/12 A3003 RMK A01 T01160116  RH  100%=      5-min Rain = 0
KVP1 231047Z 01010KT 12/12 A3003 RMK A01 T01160116  RH  100%=      5-min Rain = 0
KVP1 231048Z 00010KT 12/12 A3003 RMK A01 T01160116  RH  100%=      5-min Rain = 0
KVP1 231049Z 36009KT 12/12 A3003 RMK A01 T01160116  RH  100%=      5-min Rain = 0
KVP1 231050Z 36009KT 12/12 A3003 RMK A01 T01160116  RH  100%=      5-min Rain = 0
KVP1 231051Z 36009KT 12/12 A3004 RMK A01 T01160116  RH  100%=      5-min Rain = 0
KVP1 231052Z 36009KT 12/12 A3004 RMK A01 T01160116  RH  100%=      5-min Rain = 0
KVP1 231053Z 36010KT 12/12 A3004 RMK A01 T01160116  RH  100%=      5-min Rain = 0
KVP1 231054Z 36007KT 12/12 A3004 RMK A01 T01160116  RH  100%=      5-min Rain = 0
KVP1 231055Z 35010KT 12/12 A3004 RMK A01 T01160116  RH  100%=      5-min Rain = 0
KVP1 231056Z 00010KT 12/12 A3004 RMK A01 T01160116  RH  100%=      5-min Rain = 0
KVP1 231057Z 36009KT 12/12 A3005 RMK A01 T01160116  RH  100%=      5-min Rain = 0
KVP1 231058Z 36009KT 12/12 A3005 RMK A01 T01160116  RH  100%=      5-min Rain = 0
KVP1 231059Z 36008KT 12/12 A3005 RMK A01 T01160116  RH  100%=      5-min Rain = 0
KVP1 231100Z 35008KT 12/12 A3005 RMK A01 T01160116  RH  100%=      5-min Rain = 0
KVP1 231101Z 35008KT 12/12 A3006 RMK A01 T01160116  RH  100%=      5-min Rain = 0
KVP1 231102Z 35008KT 12/12 A3006 RMK A01 T01160116  RH  100%=      5-min Rain = 0
KVP1 231103Z 35006KT 12/12 A3006 RMK A01 T01160116  RH  100%=      5-min Rain = 0.01
KVP1 231104Z 35005KT 12/12 A3006 RMK A01 T01170117  RH  100%=      5-min Rain = 0
KVP1 231105Z 35006KT 12/12 A3007 RMK A01 T01170117  RH  100%=      5-min Rain = 0
KVP1 231106Z 35006KT 12/12 A3007 RMK A01 T01170117  RH  100%=      5-min Rain = 0
KVP1 231107Z 35007KT 12/12 A3007 RMK A01 T01170117  RH  100%=      5-min Rain = 0
KVP1 231108Z 35006KT 12/12 A3007 RMK A01 T01170117  RH  100%=      5-min Rain = 0
KVP1 231109Z 36004KT 12/12 A3008 RMK A01 T01170117  RH  100%=      5-min Rain = 0
KVP1 231110Z 36003KT 12/12 A3008 RMK A01 T01170117  RH  100%=      5-min Rain = 0
KVP1 231111Z 35005KT 12/12 A3008 RMK A01 T01160117  RH  100%=      5-min Rain = 0
KVP1 231112Z 35004KT 12/12 A3008 RMK A01 T01170117  RH  100%=      5-min Rain = 0.01
KVP1 231113Z 35005KT 12/12 A3008 RMK A01 T01170117  RH  100%=      5-min Rain = 0
KVP1 231114Z 36003KT 12/12 A3008 RMK A01 T01170117  RH  100%=      5-min Rain = 0
KVP1 231115Z 36004KT 12/12 A3008 RMK A01 T01170117  RH  100%=      5-min Rain = 0
KVP1 231116Z 35004KT 12/12 A3008 RMK A01 T01170117  RH  100%=      5-min Rain = 0.01
KVP1 231117Z 36004KT 12/12 A3008 RMK A01 T01170117  RH  100%=      5-min Rain = 0
KVP1 231118Z 36004KT 12/12 A3009 RMK A01 T01160117  RH  100%=      5-min Rain = 0.01
KVP1 231119Z 34004KT 12/12 A3009 RMK A01 T01170117  RH  100%=      5-min Rain = 0
KVP1 231120Z 35006KT 12/12 A3009 RMK A01 T01170117  RH  100%=      5-min Rain = 0
KVP1 231121Z 35005KT 12/12 A3009 RMK A01 T01170117  RH  100%=      5-min Rain = 0.01
KVP1 231122Z 36005KT 12/12 A3009 RMK A01 T01160117  RH  100%=      5-min Rain = 0
KVP1 231123Z 35004KT 12/12 A3009 RMK A01 T01170117  RH  100%=      5-min Rain = 0
KVP1 231124Z 35004KT 12/12 A3009 RMK A01 T01170117  RH  100%=      5-min Rain = 0.01
KVP1 231125Z 35004KT 12/12 A3009 RMK A01 T01170117  RH  100%=      5-min Rain = 0
KVP1 231126Z 35004KT 12/12 A3009 RMK A01 T01160117  RH  100%=      5-min Rain = 0.01
KVP1 231127Z 00004KT 12/12 A3009 RMK A01 T01160117  RH  100%=      5-min Rain = 0
KVP1 231128Z 00003KT 12/12 A3009 RMK A01 T01170117  RH  100%=      5-min Rain = 0
KVP1 231129Z 01004KT 12/12 A3009 RMK A01 T01170117  RH  100%=      5-min Rain = 0.01
KVP1 231130Z 01004KT 12/12 A3009 RMK A01 T01170117  RH  100%=      5-min Rain = 0
KVP1 231131Z 02003KT 12/12 A3009 RMK A01 T01160117  RH  100%=      5-min Rain = 0
KVP1 231132Z 03005KT 12/12 A3009 RMK A01 T01170117  RH  100%=      5-min Rain = 0.01
KVP1 231133Z 03004KT 12/12 A3009 RMK A01 T01170117  RH  100%=      5-min Rain = 0
KVP1 231134Z 02005KT 12/12 A3009 RMK A01 T01170117  RH  100%=      5-min Rain = 0.01
KVP1 231135Z 03005KT 12/12 A3009 RMK A01 T01160117  RH  100%=      5-min Rain = 0
KVP1 231136Z 02004KT 12/12 A3009 RMK A01 T01170117  RH  100%=      5-min Rain = 0.01
KVP1 231137Z 02004KT 12/12 A3009 RMK A01 T01160116  RH  100%=      5-min Rain = 0.01
KVP1 231138Z 02003KT 12/12 A3009 RMK A01 T01160116  RH  100%=      5-min Rain = 0
KVP1 231139Z 02004KT 12/12 A3009 RMK A01 T01160116  RH  100%=      5-min Rain = 0
KVP1 231140Z 02003KT 12/12 A3009 RMK A01 T01160116  RH  100%=      5-min Rain = 0.01
KVP1 231141Z 01003KT 12/12 A3009 RMK A01 T01160116  RH  100%=      5-min Rain = 0
KVP1 231142Z 01003KT 12/12 A301 RMK A01 T01160116  RH  100%=      5-min Rain = 0.01
KVP1 231143Z 02004KT 12/12 A301 RMK A01 T01160116  RH  100%=      5-min Rain = 0
KVP1 231144Z 02003KT 12/12 A301 RMK A01 T01160116  RH  100%=      5-min Rain = 0
KVP1 231145Z 03002KT 12/12 A301 RMK A01 T01160116  RH  100%=      5-min Rain = 0
KVP1 231146Z 04003KT 12/12 A301 RMK A01 T01160116  RH  100%=      5-min Rain = 0.01
KVP1 231147Z 03003KT 12/12 A301 RMK A01 T01160116  RH  100%=      5-min Rain = 0
KVP1 231148Z 05002KT 12/12 A301 RMK A01 T01160116  RH  100%=      5-min Rain = 0
KVP1 231149Z 04003KT 12/12 A301 RMK A01 T01160116  RH  100%=      5-min Rain = 0.01
KVP1 231150Z 04004KT 12/12 A3009 RMK A01 T01160116  RH  100%=      5-min Rain = 0
KVP1 231151Z 04003KT 12/12 A3009 RMK A01 T01160116  RH  100%=      5-min Rain = 0
KVP1 231152Z 04004KT 12/12 A3009 RMK A01 T01160116  RH  100%=      5-min Rain = 0.01
KVP1 231153Z 04005KT 12/12 A3009 RMK A01 T01160116  RH  100%=      5-min Rain = 0
KVP1 231154Z 04005KT 12/12 A3009 RMK A01 T01160116  RH  100%=      5-min Rain = 0.01
KVP1 231155Z 04006KT 12/12 A3008 RMK A01 T01160116  RH  100%=      5-min Rain = 0
KVP1 231156Z 04006KT 12/12 A3008 RMK A01 T01160116  RH  100%=      5-min Rain = 0
KVP1 231157Z 05006KT 12/12 A3008 RMK A01 T01160116  RH  100%=      5-min Rain = 0
KVP1 231158Z 05005KT 12/12 A3008 RMK A01 T01160116  RH  100%=      5-min Rain = 0
KVP1 231159Z 05006KT 12/12 A3008 RMK A01 T01160116  RH  100%=      5-min Rain = 0.01
KVP1 231200Z 04007KT 12/12 A3008 RMK A01 T01160116  RH  100%=      5-min Rain = 0
KVP1 231201Z 05008KT 12/12 A3007 RMK A01 T01160116  RH  100%=      5-min Rain = 0
KVP1 231202Z 04008KT 12/12 A3007 RMK A01 T01150115  RH  100%=      5-min Rain = 0
KVP1 231203Z 04008KT 12/12 A3007 RMK A01 T01150115  RH  100%=      5-min Rain = 0
KVP1 231204Z 04010KT 12/12 A3007 RMK A01 T01150115  RH  100%=      5-min Rain = 0.01
KVP1 231205Z 04010KT 12/12 A3006 RMK A01 T01150115  RH  100%=      5-min Rain = 0
KVP1 231206Z 04010KT 12/12 A3006 RMK A01 T01150115  RH  100%=      5-min Rain = 0
KVP1 231207Z 04010KT 12/12 A3006 RMK A01 T01150115  RH  100%=      5-min Rain = 0
KVP1 231208Z 04010KT 12/12 A3006 RMK A01 T01150115  RH  100%=      5-min Rain = 0
KVP1 231209Z 04010KT 12/12 A3006 RMK A01 T01150115  RH  100%=      5-min Rain = 0
KVP1 231210Z 03010KT 12/12 A3005 RMK A01 T01150115  RH  100%=      5-min Rain = 0
KVP1 231211Z 03010KT 12/12 A3005 RMK A01 T01150115  RH  100%=      5-min Rain = 0
KVP1 231212Z 03011KT 12/12 A3005 RMK A01 T01150115  RH  100%=      5-min Rain = 0.01
KVP1 231213Z 02011KT 12/12 A3005 RMK A01 T01150115  RH  100%=      5-min Rain = 0
KVP1 231214Z 02011KT 11/11 A3005 RMK A01 T01140114  RH  100%=      5-min Rain = 0
KVP1 231215Z 02010G15KT 11/11 A3005 RMK A01 T01140114  RH  100%=      5-min Rain = 0
KVP1 231216Z 02010KT 11/11 A3005 RMK A01 T01140114  RH  100%=      5-min Rain = 0
KVP1 231217Z 02012KT 11/11 A3005 RMK A01 T01140114  RH  100%=      5-min Rain = 0
KVP1 231218Z 02010KT 11/11 A3005 RMK A01 T01140114  RH  100%=      5-min Rain = 0
KVP1 231219Z 02011KT 11/11 A3005 RMK A01 T01140114  RH  100%=      5-min Rain = 0
KVP1 231220Z 02010KT 11/11 A3005 RMK A01 T01140114  RH  100%=      5-min Rain = 0
KVP1 231221Z 02010KT 11/11 A3005 RMK A01 T01140114  RH  100%=      5-min Rain = 0
KVP1 231222Z 02010KT 11/11 A3005 RMK A01 T01140114  RH  100%=      5-min Rain = 0
KVP1 231223Z 02011KT 11/11 A3005 RMK A01 T01140114  RH  100%=      5-min Rain = 0
KVP1 231224Z 02010KT 11/11 A3006 RMK A01 T01140114  RH  100%=      5-min Rain = 0
KVP1 231225Z 02010KT 11/11 A3006 RMK A01 T01140114  RH  100%=      5-min Rain = 0
KVP1 231226Z 02010KT 11/11 A3006 RMK A01 T01140114  RH  100%=      5-min Rain = 0
KVP1 231227Z 01009KT 11/11 A3006 RMK A01 T01140114  RH  100%=      5-min Rain = 0
KVP1 231228Z 36008KT 11/11 A3007 RMK A01 T01140114  RH  100%=      5-min Rain = 0
KVP1 231229Z 00009KT 11/11 A3007 RMK A01 T01140114  RH  100%=      5-min Rain = 0
KVP1 231230Z 36009KT 11/11 A3007 RMK A01 T01140114  RH  100%=      5-min Rain = 0
KVP1 231231Z 35009KT 11/11 A3007 RMK A01 T01140114  RH  100%=      5-min Rain = 0
KVP1 231232Z 35010KT 11/11 A3008 RMK A01 T01140114  RH  100%=      5-min Rain = 0
KVP1 231233Z 35010KT 12/12 A3008 RMK A01 T01150115  RH  100%=      5-min Rain = 0
KVP1 231234Z 34010KT 12/12 A3008 RMK A01 T01150115  RH  100%=      5-min Rain = 0
KVP1 231235Z 34010KT 12/12 A3008 RMK A01 T01150115  RH  100%=      5-min Rain = 0
KVP1 231236Z 34010KT 12/12 A3009 RMK A01 T01150116  RH  100%=      5-min Rain = 0
KVP1 231237Z 34010KT 12/12 A3009 RMK A01 T01160116  RH  100%=      5-min Rain = 0
KVP1 231238Z 33010KT 12/12 A3009 RMK A01 T01160116  RH  100%=      5-min Rain = 0
KVP1 231239Z 33010KT 12/12 A3009 RMK A01 T01160116  RH  100%=      5-min Rain = 0
KVP1 231240Z 33011KT 12/12 A3009 RMK A01 T01150116  RH  100%=      5-min Rain = 0
KVP1 231241Z 33011KT 12/12 A3009 RMK A01 T01160116  RH  100%=      5-min Rain = 0
KVP1 231242Z 33011KT 12/12 A3009 RMK A01 T01160116  RH  100%=      5-min Rain = 0
KVP1 231243Z 33012KT 12/12 A3009 RMK A01 T01160116  RH  100%=      5-min Rain = 0
KVP1 231244Z 33012KT 12/12 A3009 RMK A01 T01160116  RH  100%=      5-min Rain = 0
KVP1 231245Z 33012KT 12/12 A3009 RMK A01 T01160116  RH  100%=      5-min Rain = 0
KVP1 231246Z 34011KT 12/12 A3009 RMK A01 T01160116  RH  100%=      5-min Rain = 0
KVP1 231247Z 34011KT 12/12 A3009 RMK A01 T01160116  RH  100%=      5-min Rain = 0
KVP1 231248Z 34012KT 12/12 A3009 RMK A01 T01160116  RH  100%=      5-min Rain = 0
KVP1 231249Z 34011KT 12/12 A3009 RMK A01 T01160116  RH  100%=      5-min Rain = 0
KVP1 231250Z 34011KT 12/12 A301 RMK A01 T01160116  RH  100%=      5-min Rain = 0
KVP1 231251Z 34010KT 12/12 A301 RMK A01 T01160116  RH  100%=      5-min Rain = 0
KVP1 231252Z 34010KT 12/12 A301 RMK A01 T01160116  RH  100%=      5-min Rain = 0
KVP1 231253Z 34011KT 12/12 A301 RMK A01 T01170117  RH  100%=      5-min Rain = 0
KVP1 231254Z 34010KT 12/12 A301 RMK A01 T01170117  RH  100%=      5-min Rain = 0
KVP1 231255Z 33009KT 12/12 A301 RMK A01 T01170117  RH  100%=      5-min Rain = 0
KVP1 231256Z 33008KT 12/12 A301 RMK A01 T01170117  RH  100%=      5-min Rain = 0
KVP1 231257Z 34009KT 12/12 A301 RMK A01 T01170117  RH  100%=      5-min Rain = 0
KVP1 231258Z 34009KT 12/12 A301 RMK A01 T01170117  RH  100%=      5-min Rain = 0
KVP1 231259Z 34008KT 12/12 A301 RMK A01 T01170117  RH  100%=      5-min Rain = 0
KVP1 231300Z 34007KT 12/12 A301 RMK A01 T01170117  RH  100%=      5-min Rain = 0
KVP1 231301Z 34009KT 12/12 A301 RMK A01 T01170117  RH  100%=      5-min Rain = 0
KVP1 231302Z 34011KT 12/12 A301 RMK A01 T01170117  RH  100%=      5-min Rain = 0
KVP1 231303Z 34009KT 12/12 A301 RMK A01 T01170118  RH  100%=      5-min Rain = 0
KVP1 231304Z 34008KT 12/12 A301 RMK A01 T01170117  RH  100%=      5-min Rain = 0
KVP1 231305Z 34007KT 12/12 A301 RMK A01 T01170117  RH  100%=      5-min Rain = 0
KVP1 231306Z 35008KT 12/12 A301 RMK A01 T01170117  RH  100%=      5-min Rain = 0
KVP1 231307Z 34008KT 12/12 A301 RMK A01 T01170117  RH  100%=      5-min Rain = 0
KVP1 231308Z 34009KT 12/12 A301 RMK A01 T01180118  RH  100%=      5-min Rain = 0
KVP1 231309Z 34008KT 12/12 A301 RMK A01 T01170118  RH  100%=      5-min Rain = 0
KVP1 231310Z 34009KT 12/12 A301 RMK A01 T01180118  RH  100%=      5-min Rain = 0
KVP1 231311Z 34008KT 12/12 A301 RMK A01 T01180118  RH  100%=      5-min Rain = 0
KVP1 231312Z 34008KT 12/12 A301 RMK A01 T01180118  RH  100%=      5-min Rain = 0
KVP1 231313Z 34009KT 12/12 A301 RMK A01 T01180118  RH  100%=      5-min Rain = 0
KVP1 231314Z 35008KT 12/12 A301 RMK A01 T01180118  RH  100%=      5-min Rain = 0
KVP1 231315Z 34011KT 12/12 A301 RMK A01 T01180118  RH  100%=      5-min Rain = 0
KVP1 231316Z 35009KT 12/12 A301 RMK A01 T01170117  RH  100%=      5-min Rain = 0
KVP1 231317Z 35012KT 12/12 A301 RMK A01 T01170117  RH  100%=      5-min Rain = 0
KVP1 231318Z 35010KT 12/12 A301 RMK A01 T01170117  RH  100%=      5-min Rain = 0
KVP1 231319Z 35009KT 12/12 A301 RMK A01 T01160116  RH  100%=      5-min Rain = 0
KVP1 231320Z 35010KT 12/12 A301 RMK A01 T01170116  RH  100%=      5-min Rain = 0
KVP1 231321Z 35011KT 12/12 A3011 RMK A01 T01170116  RH  100%=      5-min Rain = 0
KVP1 231322Z 35012KT 12/12 A3011 RMK A01 T01160115  RH  099%=      5-min Rain = 0
KVP1 231323Z 35011KT 12/11 A3011 RMK A01 T01160114  RH  099%=      5-min Rain = 0
KVP1 231324Z 36011KT 12/11 A3011 RMK A01 T01160114  RH  099%=      5-min Rain = 0
KVP1 231325Z 36011KT 12/11 A3011 RMK A01 T01150114  RH  099%=      5-min Rain = 0
KVP1 231326Z 35010KT 12/11 A3011 RMK A01 T01150113  RH  099%=      5-min Rain = 0
KVP1 231327Z 36011KT 12/11 A3011 RMK A01 T01150113  RH  099%=      5-min Rain = 0
KVP1 231328Z 36009KT 12/11 A3011 RMK A01 T01150113  RH  099%=      5-min Rain = 0
KVP1 231329Z 36010KT 12/11 A3011 RMK A01 T01150113  RH  099%=      5-min Rain = 0
KVP1 231330Z 01009KT 12/11 A3011 RMK A01 T01150113  RH  099%=      5-min Rain = 0
KVP1 231331Z 00008KT 11/11 A3011 RMK A01 T01140113  RH  099%=      5-min Rain = 0
KVP1 231332Z 00010KT 11/11 A3011 RMK A01 T01140113  RH  099%=      5-min Rain = 0
KVP1 231333Z 01012KT 11/11 A3011 RMK A01 T01140112  RH  099%=      5-min Rain = 0
KVP1 231334Z 02010KT 11/11 A3011 RMK A01 T01130112  RH  099%=      5-min Rain = 0
KVP1 231335Z 01010KT 11/11 A3011 RMK A01 T01130111  RH  099%=      5-min Rain = 0
KVP1 231336Z 02010KT 11/11 A3011 RMK A01 T01130112  RH  099%=      5-min Rain = 0
KVP1 231337Z 02011KT 11/11 A3011 RMK A01 T01130112  RH  099%=      5-min Rain = 0
KVP1 231338Z 02010KT 11/11 A3011 RMK A01 T01130112  RH  099%=      5-min Rain = 0
KVP1 231339Z 02011KT 11/11 A3011 RMK A01 T01130112  RH  099%=      5-min Rain = 0
KVP1 231340Z 01010KT 11/11 A3011 RMK A01 T01130112  RH  099%=      5-min Rain = 0
KVP1 231341Z 02011KT 11/11 A3011 RMK A01 T01130112  RH  099%=      5-min Rain = 0
KVP1 231342Z 02012KT 11/11 A3011 RMK A01 T01130111  RH  099%=      5-min Rain = 0
KVP1 231343Z 02012KT 11/11 A3011 RMK A01 T01130111  RH  099%=      5-min Rain = 0
KVP1 231344Z 03010KT 11/11 A3012 RMK A01 T01120111  RH  099%=      5-min Rain = 0
KVP1 231345Z 02009KT 11/11 A3012 RMK A01 T01130112  RH  099%=      5-min Rain = 0
KVP1 231346Z 02012KT 11/11 A3012 RMK A01 T01130112  RH  099%=      5-min Rain = 0
KVP1 231347Z 02012KT 11/11 A3012 RMK A01 T01130112  RH  099%=      5-min Rain = 0
KVP1 231348Z 02011KT 11/11 A3012 RMK A01 T01130111  RH  099%=      5-min Rain = 0
KVP1 231349Z 02011KT 11/11 A3012 RMK A01 T01130111  RH  098%=      5-min Rain = 0
KVP1 231350Z 03011KT 11/11 A3012 RMK A01 T01140112  RH  099%=      5-min Rain = 0
KVP1 231351Z 03012KT 11/11 A3012 RMK A01 T01140112  RH  098%=      5-min Rain = 0
KVP1 231352Z 03010KT 11/11 A3011 RMK A01 T01140111  RH  098%=      5-min Rain = 0
KVP1 231353Z 02011KT 11/11 A3011 RMK A01 T01140112  RH  098%=      5-min Rain = 0
KVP1 231354Z 03009KT 11/11 A3011 RMK A01 T01140111  RH  098%=      5-min Rain = 0
KVP1 231355Z 02010KT 11/11 A3011 RMK A01 T01140112  RH  098%=      5-min Rain = 0
KVP1 231356Z 02012KT 11/11 A3011 RMK A01 T01140112  RH  099%=      5-min Rain = 0
KVP1 231357Z 02013KT 11/11 A3011 RMK A01 T01140111  RH  098%=      5-min Rain = 0
KVP1 231358Z 02012KT 11/11 A3011 RMK A01 T01130110  RH  098%=      5-min Rain = 0
KVP1 231359Z 02011KT 11/11 A3011 RMK A01 T01130110  RH  098%=      5-min Rain = 0
KVP1 231400Z 02013KT 11/11 A3011 RMK A01 T01130110  RH  098%=      5-min Rain = 0
KVP1 231401Z 03012KT 11/11 A3011 RMK A01 T01130110  RH  098%=      5-min Rain = 0
KVP1 231402Z 03013KT 11/11 A3011 RMK A01 T01130110  RH  098%=      5-min Rain = 0
KVP1 231403Z 03013KT 11/11 A301 RMK A01 T01120110  RH  098%=      5-min Rain = 0
KVP1 231404Z 03013KT 11/11 A301 RMK A01 T01120109  RH  098%=      5-min Rain = 0
KVP1 231405Z 02012KT 11/11 A301 RMK A01 T01120110  RH  099%=      5-min Rain = 0
KVP1 231406Z 03013KT 11/11 A301 RMK A01 T01130110  RH  099%=      5-min Rain = 0
KVP1 231407Z 03013KT 11/11 A301 RMK A01 T01130111  RH  099%=      5-min Rain = 0
KVP1 231408Z 03015KT 11/11 A301 RMK A01 T01130111  RH  098%=      5-min Rain = 0
KVP1 231409Z 02015KT 11/11 A301 RMK A01 T01130110  RH  098%=      5-min Rain = 0
KVP1 231410Z 03014KT 11/11 A3009 RMK A01 T01130111  RH  098%=      5-min Rain = 0
KVP1 231411Z 02014KT 11/11 A3009 RMK A01 T01140111  RH  098%=      5-min Rain = 0
KVP1 231412Z 02013G19KT 12/11 A3009 RMK A01 T01150112  RH  098%=      5-min Rain = 0
KVP1 231413Z 02015KT 12/11 A3009 RMK A01 T01150112  RH  098%=      5-min Rain = 0
KVP1 231414Z 02013KT 12/11 A3009 RMK A01 T01160113  RH  098%=      5-min Rain = 0
KVP1 231415Z 02013KT 12/11 A3009 RMK A01 T01160112  RH  098%=      5-min Rain = 0
KVP1 231416Z 02015KT 12/11 A3009 RMK A01 T01150111  RH  097%=      5-min Rain = 0
KVP1 231417Z 02012KT 12/11 A3009 RMK A01 T01150111  RH  098%=      5-min Rain = 0
KVP1 231418Z 02014KT 12/11 A3009 RMK A01 T01150112  RH  098%=      5-min Rain = 0
KVP1 231419Z 02013G18KT 12/11 A3009 RMK A01 T01150113  RH  098%=      5-min Rain = 0
KVP1 231420Z 02012KT 12/11 A3009 RMK A01 T01150112  RH  098%=      5-min Rain = 0
KVP1 231421Z 02012KT 12/11 A3009 RMK A01 T01150113  RH  099%=      5-min Rain = 0
KVP1 231422Z 02013KT 12/11 A3009 RMK A01 T01160114  RH  099%=      5-min Rain = 0
KVP1 231423Z 02014KT 12/11 A3009 RMK A01 T01150113  RH  098%=      5-min Rain = 0
KVP1 231424Z 02014KT 12/11 A3009 RMK A01 T01150112  RH  098%=      5-min Rain = 0
KVP1 231425Z 02013KT 11/11 A301 RMK A01 T01140111  RH  098%=      5-min Rain = 0
KVP1 231426Z 02014KT 11/11 A301 RMK A01 T01130111  RH  098%=      5-min Rain = 0
KVP1 231427Z 02014KT 11/11 A301 RMK A01 T01130110  RH  098%=      5-min Rain = 0
KVP1 231428Z 02013KT 11/11 A301 RMK A01 T01130110  RH  098%=      5-min Rain = 0
KVP1 231429Z 02010KT 11/11 A301 RMK A01 T01130110  RH  098%=      5-min Rain = 0
KVP1 231430Z 03013KT 11/11 A3009 RMK A01 T01130111  RH  099%=      5-min Rain = 0
KVP1 231431Z 03014KT 11/11 A3009 RMK A01 T01130111  RH  099%=      5-min Rain = 0
KVP1 231432Z 03014KT 11/11 A3009 RMK A01 T01130111  RH  099%=      5-min Rain = 0
KVP1 231433Z 03012KT 11/11 A3009 RMK A01 T01120110  RH  099%=      5-min Rain = 0
KVP1 231434Z 02013KT 11/11 A3009 RMK A01 T01120110  RH  099%=      5-min Rain = 0
KVP1 231435Z 03013KT 11/11 A3009 RMK A01 T01120111  RH  099%=      5-min Rain = 0
KVP1 231436Z 03014KT 11/11 A3009 RMK A01 T01120110  RH  099%=      5-min Rain = 0
KVP1 231437Z 03013KT 11/11 A3009 RMK A01 T01120110  RH  099%=      5-min Rain = 0
KVP1 231438Z 03011KT 11/11 A3009 RMK A01 T01120110  RH  099%=      5-min Rain = 0
KVP1 231439Z 03014KT 11/11 A3009 RMK A01 T01120111  RH  099%=      5-min Rain = 0
KVP1 231440Z 03016KT 11/11 A3008 RMK A01 T01120110  RH  099%=      5-min Rain = 0
KVP1 231441Z 03014KT 11/11 A3008 RMK A01 T01110109  RH  099%=      5-min Rain = 0
KVP1 231442Z 03013KT 11/11 A3008 RMK A01 T01110110  RH  099%=      5-min Rain = 0
KVP1 231443Z 03013KT 11/11 A3008 RMK A01 T01120111  RH  099%=      5-min Rain = 0
KVP1 231444Z 03013KT 11/11 A3008 RMK A01 T01120111  RH  099%=      5-min Rain = 0
KVP1 231445Z 04011G16KT 11/11 A3008 RMK A01 T01120111  RH  100%=      5-min Rain = 0
KVP1 231446Z 03014KT 11/11 A3008 RMK A01 T01120112  RH  100%=      5-min Rain = 0
KVP1 231447Z 03015KT 11/11 A3008 RMK A01 T01120111  RH  099%=      5-min Rain = 0
KVP1 231448Z 03014KT 11/11 A3009 RMK A01 T01110110  RH  099%=      5-min Rain = 0
KVP1 231449Z 04014KT 11/11 A3009 RMK A01 T01110109  RH  099%=      5-min Rain = 0
KVP1 231450Z 03011KT 11/11 A3009 RMK A01 T01110110  RH  099%=      5-min Rain = 0
KVP1 231451Z 03013G18KT 11/11 A3009 RMK A01 T01110110  RH  099%=      5-min Rain = 0
KVP1 231452Z 03014KT 11/11 A3009 RMK A01 T01110109  RH  099%=      5-min Rain = 0
KVP1 231453Z 03010KT 11/11 A3009 RMK A01 T01110109  RH  099%=      5-min Rain = 0
KVP1 231454Z 03010KT 11/11 A3009 RMK A01 T01100109  RH  099%=      5-min Rain = 0
KVP1 231455Z 04009KT 11/11 A301 RMK A01 T01110110  RH  099%=      5-min Rain = 0
KVP1 231456Z 03011KT 11/11 A301 RMK A01 T01110110  RH  099%=      5-min Rain = 0
KVP1 231457Z 04013KT 11/11 A301 RMK A01 T01110110  RH  099%=      5-min Rain = 0
KVP1 231458Z 03014KT 11/11 A301 RMK A01 T01110109  RH  099%=      5-min Rain = 0
KVP1 231459Z 04014KT 11/11 A301 RMK A01 T01110108  RH  098%=      5-min Rain = 0
KVP1 231500Z 04016KT 11/11 A301 RMK A01 T01110107  RH  097%=      5-min Rain = 0
KVP1 231501Z 04015KT 11/11 A301 RMK A01 T01110106  RH  097%=      5-min Rain = 0
KVP1 231502Z 04015KT 11/11 A301 RMK A01 T01110105  RH  096%=      5-min Rain = 0
KVP1 231503Z 04015KT 11/11 A301 RMK A01 T01110105  RH  096%=      5-min Rain = 0
KVP1 231504Z 04014KT 11/11 A301 RMK A01 T01110105  RH  096%=      5-min Rain = 0
KVP1 231505Z 05014KT 11/11 A301 RMK A01 T01110105  RH  096%=      5-min Rain = 0
KVP1 231506Z 04013KT 11/11 A301 RMK A01 T01110105  RH  096%=      5-min Rain = 0
KVP1 231507Z 04012KT 11/11 A301 RMK A01 T01110105  RH  096%=      5-min Rain = 0
KVP1 231508Z 04012KT 11/11 A3011 RMK A01 T01110105  RH  096%=      5-min Rain = 0
KVP1 231509Z 04016KT 11/11 A301 RMK A01 T01120105  RH  096%=      5-min Rain = 0
KVP1 231510Z 04014KT 11/11 A3011 RMK A01 T01110105  RH  095%=      5-min Rain = 0
KVP1 231511Z 03016KT 11/11 A3011 RMK A01 T01120105  RH  095%=      5-min Rain = 0
KVP1 231512Z 04015KT 11/10 A3011 RMK A01 T01120104  RH  095%=      5-min Rain = 0
KVP1 231513Z 04013KT 11/10 A3011 RMK A01 T01110104  RH  095%=      5-min Rain = 0
KVP1 231514Z 04013KT 11/11 A3011 RMK A01 T01110105  RH  096%=      5-min Rain = 0
KVP1 231515Z 03015KT 11/11 A3011 RMK A01 T01110105  RH  096%=      5-min Rain = 0
KVP1 231516Z 04014KT 11/10 A3011 RMK A01 T01110104  RH  096%=      5-min Rain = 0
KVP1 231517Z 04013KT 11/10 A3011 RMK A01 T01110104  RH  096%=      5-min Rain = 0
KVP1 231518Z 04011KT 11/11 A3011 RMK A01 T01110105  RH  096%=      5-min Rain = 0
KVP1 231519Z 04013G18KT 11/11 A3011 RMK A01 T01110105  RH  096%=      5-min Rain = 0
KVP1 231520Z 04014KT 11/11 A3011 RMK A01 T01110105  RH  096%=      5-min Rain = 0
KVP1 231521Z 04013KT 11/10 A3011 RMK A01 T01110104  RH  096%=      5-min Rain = 0
KVP1 231522Z 04015KT 11/10 A3011 RMK A01 T01110104  RH  096%=      5-min Rain = 0
KVP1 231523Z 04012KT 11/10 A3011 RMK A01 T01110104  RH  096%=      5-min Rain = 0
KVP1 231524Z 04011KT 11/11 A3012 RMK A01 T01100105  RH  096%=      5-min Rain = 0
KVP1 231525Z 05013KT 11/11 A3011 RMK A01 T01110105  RH  096%=      5-min Rain = 0
KVP1 231526Z 04012KT 11/11 A3012 RMK A01 T01110105  RH  096%=      5-min Rain = 0
KVP1 231527Z 04013KT 11/11 A3012 RMK A01 T01110105  RH  096%=      5-min Rain = 0
KVP1 231528Z 05012KT 11/11 A3012 RMK A01 T01110105  RH  096%=      5-min Rain = 0
KVP1 231529Z 04011KT 11/11 A3012 RMK A01 T01110105  RH  097%=      5-min Rain = 0
KVP1 231530Z 04011KT 11/11 A3012 RMK A01 T01110107  RH  097%=      5-min Rain = 0
KVP1 231531Z 05012KT 11/11 A3012 RMK A01 T01110107  RH  097%=      5-min Rain = 0
KVP1 231532Z 04013KT 11/11 A3012 RMK A01 T01110106  RH  097%=      5-min Rain = 0
KVP1 231533Z 04013KT 11/11 A3012 RMK A01 T01100105  RH  097%=      5-min Rain = 0
KVP1 231534Z 04011KT 11/11 A3012 RMK A01 T01100105  RH  096%=      5-min Rain = 0
KVP1 231535Z 04009KT 11/11 A3012 RMK A01 T01100105  RH  097%=      5-min Rain = 0
KVP1 231536Z 04010KT 11/11 A3012 RMK A01 T01100105  RH  097%=      5-min Rain = 0
KVP1 231537Z 04010KT 11/11 A3012 RMK A01 T01100105  RH  097%=      5-min Rain = 0
KVP1 231538Z 04010KT 11/11 A3012 RMK A01 T01100105  RH  097%=      5-min Rain = 0
KVP1 231539Z 03009KT 11/11 A3012 RMK A01 T01090105  RH  097%=      5-min Rain = 0
KVP1 231540Z 03008KT 11/11 A3012 RMK A01 T01090105  RH  097%=      5-min Rain = 0
KVP1 231541Z 03007KT 11/11 A3012 RMK A01 T01090106  RH  098%=      5-min Rain = 0
KVP1 231542Z 03010KT 11/11 A3012 RMK A01 T01090106  RH  098%=      5-min Rain = 0
KVP1 231543Z 02012G17KT 11/11 A3012 RMK A01 T01090105  RH  098%=      5-min Rain = 0
KVP1 231544Z 03010KT 11/10 A3012 RMK A01 T01070103  RH  097%=      5-min Rain = 0
KVP1 231545Z 03011KT 11/10 A3012 RMK A01 T01060103  RH  097%=      5-min Rain = 0
KVP1 231546Z 03012KT 11/10 A3012 RMK A01 T01050101  RH  097%=      5-min Rain = 0
KVP1 231547Z 03012KT 11/10 A3013 RMK A01 T01050100  RH  097%=      5-min Rain = 0
KVP1 231548Z 03011KT 11/10 A3012 RMK A01 T01050100  RH  097%=      5-min Rain = 0
KVP1 231549Z 03009KT 10/10 A3013 RMK A01 T01040100  RH  097%=      5-min Rain = 0
KVP1 231550Z 03009KT 10/10 A3013 RMK A01 T01040100  RH  097%=      5-min Rain = 0
KVP1 231551Z 02012KT 10/10 A3013 RMK A01 T01040101  RH  098%=      5-min Rain = 0
KVP1 231552Z 02010KT 10/10 A3013 RMK A01 T01040099  RH  097%=      5-min Rain = 0
KVP1 231553Z 03010KT 10/10 A3013 RMK A01 T01040099  RH  097%=      5-min Rain = 0
KVP1 231554Z 03009KT 10/10 A3013 RMK A01 T01040100  RH  097%=      5-min Rain = 0
KVP1 231555Z 03011KT 10/10 A3013 RMK A01 T01040100  RH  098%=      5-min Rain = 0
KVP1 231556Z 02011KT 10/10 A3013 RMK A01 T01040100  RH  097%=      5-min Rain = 0
KVP1 231557Z 03013KT 10/10 A3013 RMK A01 T01040099  RH  097%=      5-min Rain = 0
KVP1 231558Z 03011KT 10/10 A3013 RMK A01 T01030098  RH  097%=      5-min Rain = 0
KVP1 231559Z 03013KT 10/10 A3013 RMK A01 T01030098  RH  097%=      5-min Rain = 0
KVP1 231600Z 03011KT 10/10 A3013 RMK A01 T01030098  RH  097%=      5-min Rain = 0
KVP1 231601Z 03009G14KT 10/10 A3013 RMK A01 T01030098  RH  097%=      5-min Rain = 0
KVP1 231602Z 02011KT 10/10 A3013 RMK A01 T01030099  RH  097%=      5-min Rain = 0
KVP1 231603Z 03009KT 10/10 A3013 RMK A01 T01030098  RH  096%=      5-min Rain = 0
KVP1 231604Z 03011KT 10/10 A3013 RMK A01 T01030098  RH  096%=      5-min Rain = 0
KVP1 231605Z 03008KT 10/10 A3013 RMK A01 T01030098  RH  097%=      5-min Rain = 0
KVP1 231606Z 02011KT 10/10 A3013 RMK A01 T01040099  RH  097%=      5-min Rain = 0
KVP1 231607Z 02010KT 10/10 A3013 RMK A01 T01030098  RH  096%=      5-min Rain = 0
KVP1 231608Z 03008KT 10/10 A3013 RMK A01 T01030098  RH  097%=      5-min Rain = 0
KVP1 231609Z 02009KT 10/10 A3013 RMK A01 T01040099  RH  097%=      5-min Rain = 0
KVP1 231610Z 02008KT 10/10 A3013 RMK A01 T01040099  RH  097%=      5-min Rain = 0
KVP1 231611Z 01010KT 10/10 A3013 RMK A01 T01040099  RH  097%=      5-min Rain = 0
KVP1 231612Z 02009KT 10/10 A3013 RMK A01 T01040098  RH  096%=      5-min Rain = 0
KVP1 231613Z 02010KT 10/10 A3013 RMK A01 T01040099  RH  097%=      5-min Rain = 0
KVP1 231614Z 02012KT 10/10 A3013 RMK A01 T01040098  RH  096%=      5-min Rain = 0
KVP1 231615Z 03011KT 10/10 A3013 RMK A01 T01030098  RH  096%=      5-min Rain = 0
KVP1 231616Z 03012KT 10/10 A3013 RMK A01 T01040098  RH  096%=      5-min Rain = 0
KVP1 231617Z 02009KT 10/10 A3013 RMK A01 T01040098  RH  097%=      5-min Rain = 0
KVP1 231618Z 03012KT 10/10 A3013 RMK A01 T01030099  RH  097%=      5-min Rain = 0
KVP1 231619Z 03013KT 10/10 A3013 RMK A01 T01030098  RH  097%=      5-min Rain = 0
KVP1 231620Z 03013KT 10/10 A3013 RMK A01 T01030098  RH  097%=      5-min Rain = 0
KVP1 231621Z 03012KT 10/10 A3013 RMK A01 T01030097  RH  096%=      5-min Rain = 0
KVP1 231622Z 04011KT 10/10 A3013 RMK A01 T01030097  RH  096%=      5-min Rain = 0
KVP1 231623Z 04012KT 10/10 A3013 RMK A01 T01030098  RH  097%=      5-min Rain = 0
KVP1 231624Z 03011KT 10/10 A3013 RMK A01 T01030097  RH  097%=      5-min Rain = 0
KVP1 231625Z 04011KT 10/10 A3013 RMK A01 T01030098  RH  097%=      5-min Rain = 0
KVP1 231626Z 03011KT 10/10 A3013 RMK A01 T01030098  RH  097%=      5-min Rain = 0
KVP1 231627Z 03012KT 10/10 A3013 RMK A01 T01030097  RH  096%=      5-min Rain = 0
KVP1 231628Z 03011KT 10/10 A3013 RMK A01 T01030097  RH  096%=      5-min Rain = 0
KVP1 231629Z 03011KT 10/10 A3013 RMK A01 T01020097  RH  097%=      5-min Rain = 0
KVP1 231630Z 04010KT 10/10 A3014 RMK A01 T01020097  RH  097%=      5-min Rain = 0
KVP1 231631Z 04009KT 10/10 A3014 RMK A01 T01030098  RH  097%=      5-min Rain = 0
KVP1 231632Z 04007KT 10/10 A3014 RMK A01 T01030099  RH  097%=      5-min Rain = 0
KVP1 231633Z 03007KT 10/10 A3014 RMK A01 T01030100  RH  098%=      5-min Rain = 0
KVP1 231634Z 04008KT 10/10 A3014 RMK A01 T01040100  RH  097%=      5-min Rain = 0
KVP1 231635Z 03009KT 10/10 A3014 RMK A01 T01040100  RH  097%=      5-min Rain = 0
KVP1 231636Z 03008KT 10/10 A3014 RMK A01 T01040099  RH  097%=      5-min Rain = 0
KVP1 231637Z 03008KT 10/10 A3014 RMK A01 T01040099  RH  097%=      5-min Rain = 0
KVP1 231638Z 04009KT 10/10 A3014 RMK A01 T01040099  RH  097%=      5-min Rain = 0
KVP1 231639Z 04008KT 10/10 A3014 RMK A01 T01040099  RH  097%=      5-min Rain = 0
KVP1 231640Z 03011KT 10/10 A3014 RMK A01 T01040099  RH  096%=      5-min Rain = 0
KVP1 231641Z 03010KT 10/10 A3014 RMK A01 T01040098  RH  096%=      5-min Rain = 0
KVP1 231642Z 03011KT 10/10 A3014 RMK A01 T01040098  RH  096%=      5-min Rain = 0
KVP1 231643Z 03010KT 10/10 A3014 RMK A01 T01040097  RH  096%=      5-min Rain = 0
KVP1 231644Z 03011KT 10/10 A3014 RMK A01 T01040097  RH  096%=      5-min Rain = 0
KVP1 231645Z 03010KT 10/10 A3014 RMK A01 T01040097  RH  096%=      5-min Rain = 0
KVP1 231646Z 04009KT 10/10 A3014 RMK A01 T01040097  RH  096%=      5-min Rain = 0
KVP1 231647Z 04009KT 10/10 A3014 RMK A01 T01040098  RH  096%=      5-min Rain = 0
KVP1 231648Z 04009KT 10/10 A3014 RMK A01 T01040097  RH  096%=      5-min Rain = 0
KVP1 231649Z 04008KT 10/10 A3014 RMK A01 T01040098  RH  096%=      5-min Rain = 0
KVP1 231650Z 04009KT 10/10 A3014 RMK A01 T01040098  RH  096%=      5-min Rain = 0
KVP1 231651Z 04009KT 10/10 A3014 RMK A01 T01040098  RH  096%=      5-min Rain = 0
KVP1 231652Z 04010KT 10/10 A3014 RMK A01 T01040098  RH  096%=      5-min Rain = 0
KVP1 231653Z 04010KT 10/10 A3014 RMK A01 T01040097  RH  096%=      5-min Rain = 0
KVP1 231654Z 04011KT 10/10 A3014 RMK A01 T01040097  RH  095%=      5-min Rain = 0
KVP1 231655Z 04011KT 10/10 A3013 RMK A01 T01040097  RH  096%=      5-min Rain = 0
KVP1 231656Z 04012KT 10/10 A3013 RMK A01 T01040097  RH  095%=      5-min Rain = 0
KVP1 231657Z 04012KT 10/10 A3013 RMK A01 T01040097  RH  096%=      5-min Rain = 0
KVP1 231658Z 03012KT 10/10 A3013 RMK A01 T01040097  RH  096%=      5-min Rain = 0
KVP1 231659Z 04011KT 10/10 A3013 RMK A01 T01030097  RH  096%=      5-min Rain = 0
KVP1 231700Z 04011KT 10/10 A3013 RMK A01 T01030097  RH  096%=      5-min Rain = 0
KVP1 231701Z 03009KT 10/10 A3013 RMK A01 T01030098  RH  096%=      5-min Rain = 0
KVP1 231702Z 04011KT 10/10 A3013 RMK A01 T01040099  RH  097%=      5-min Rain = 0
KVP1 231703Z 04011KT 10/10 A3013 RMK A01 T01040098  RH  096%=      5-min Rain = 0
KVP1 231704Z 04012KT 10/10 A3013 RMK A01 T01040098  RH  096%=      5-min Rain = 0
KVP1 231705Z 04011KT 10/10 A3013 RMK A01 T01040098  RH  096%=      5-min Rain = 0
KVP1 231706Z 04008KT 10/10 A3013 RMK A01 T01040099  RH  097%=      5-min Rain = 0
KVP1 231707Z 03010KT 11/10 A3013 RMK A01 T01050101  RH  097%=      5-min Rain = 0
KVP1 231708Z 04011KT 11/10 A3013 RMK A01 T01050100  RH  096%=      5-min Rain = 0
KVP1 231709Z 04012KT 11/10 A3013 RMK A01 T01050099  RH  096%=      5-min Rain = 0
KVP1 231710Z 04012KT 11/10 A3013 RMK A01 T01050098  RH  095%=      5-min Rain = 0
KVP1 231711Z 04011KT 10/10 A3013 RMK A01 T01040097  RH  095%=      5-min Rain = 0
KVP1 231712Z 04009KT 10/10 A3013 RMK A01 T01040098  RH  096%=      5-min Rain = 0
KVP1 231713Z 04012KT 11/10 A3012 RMK A01 T01050098  RH  096%=      5-min Rain = 0
KVP1 231714Z 03011KT 11/10 A3012 RMK A01 T01050097  RH  095%=      5-min Rain = 0
KVP1 231715Z 03012KT 11/10 A3012 RMK A01 T01050097  RH  095%=      5-min Rain = 0
KVP1 231716Z 04009KT 11/10 A3012 RMK A01 T01050098  RH  095%=      5-min Rain = 0
KVP1 231717Z 03012KT 11/10 A3012 RMK A01 T01060099  RH  096%=      5-min Rain = 0
KVP1 231718Z 04012KT 11/10 A3012 RMK A01 T01060099  RH  095%=      5-min Rain = 0
KVP1 231719Z 03011KT 11/10 A3012 RMK A01 T01060099  RH  095%=      5-min Rain = 0
KVP1 231720Z 04009KT 11/10 A3012 RMK A01 T01060098  RH  095%=      5-min Rain = 0
KVP1 231721Z 04011KT 11/10 A3012 RMK A01 T01070100  RH  095%=      5-min Rain = 0
KVP1 231722Z 04014KT 11/10 A3012 RMK A01 T01070098  RH  094%=      5-min Rain = 0
KVP1 231723Z 04014KT 11/10 A3012 RMK A01 T01070097  RH  094%=      5-min Rain = 0
KVP1 231724Z 04013KT 11/10 A3012 RMK A01 T01060096  RH  093%=      5-min Rain = 0
KVP1 231725Z 04015KT 11/10 A3012 RMK A01 T01060096  RH  094%=      5-min Rain = 0
KVP1 231726Z 04013KT 11/10 A3012 RMK A01 T01060096  RH  094%=      5-min Rain = 0
KVP1 231727Z 04013KT 11/10 A3012 RMK A01 T01060096  RH  094%=      5-min Rain = 0
KVP1 231728Z 04011KT 11/10 A3012 RMK A01 T01060098  RH  095%=      5-min Rain = 0
KVP1 231729Z 04013KT 11/10 A3011 RMK A01 T01070099  RH  095%=      5-min Rain = 0
KVP1 231730Z 04013KT 11/10 A3011 RMK A01 T01070098  RH  094%=      5-min Rain = 0
KVP1 231731Z 04012KT 11/10 A3011 RMK A01 T01070098  RH  094%=      5-min Rain = 0
KVP1 231732Z 04014KT 11/10 A3011 RMK A01 T01060098  RH  095%=      5-min Rain = 0
KVP1 231733Z 04013KT 11/10 A3011 RMK A01 T01070098  RH  094%=      5-min Rain = 0
KVP1 231734Z 04013KT 11/10 A3011 RMK A01 T01070099  RH  095%=      5-min Rain = 0
KVP1 231735Z 04012KT 11/10 A3011 RMK A01 T01070099  RH  095%=      5-min Rain = 0
KVP1 231736Z 05013KT 11/10 A3011 RMK A01 T01070099  RH  095%=      5-min Rain = 0
KVP1 231737Z 05012KT 11/10 A3011 RMK A01 T01070098  RH  094%=      5-min Rain = 0
KVP1 231738Z 03012KT 11/10 A3011 RMK A01 T01070101  RH  096%=      5-min Rain = 0
KVP1 231739Z 03014KT 11/10 A3011 RMK A01 T01080100  RH  095%=      5-min Rain = 0
KVP1 231740Z 04012KT 11/10 A3011 RMK A01 T01080099  RH  094%=      5-min Rain = 0
KVP1 231741Z 03011KT 11/10 A3011 RMK A01 T01080099  RH  094%=      5-min Rain = 0
KVP1 231742Z 03013KT 11/10 A3011 RMK A01 T01080100  RH  095%=      5-min Rain = 0
KVP1 231743Z 04016KT 11/10 A301 RMK A01 T01080099  RH  094%=      5-min Rain = 0
KVP1 231744Z 04013KT 11/10 A301 RMK A01 T01080098  RH  094%=      5-min Rain = 0
KVP1 231745Z 04015KT 11/10 A301 RMK A01 T01070099  RH  095%=      5-min Rain = 0
KVP1 231746Z 04016KT 11/10 A301 RMK A01 T01060097  RH  094%=      5-min Rain = 0
KVP1 231747Z 03013KT 11/10 A301 RMK A01 T01060098  RH  094%=      5-min Rain = 0
KVP1 231748Z 03011KT 11/10 A3011 RMK A01 T01060099  RH  096%=      5-min Rain = 0
KVP1 231749Z 03015KT 11/10 A301 RMK A01 T01060099  RH  095%=      5-min Rain = 0
KVP1 231750Z 03015KT 11/10 A301 RMK A01 T01070098  RH  094%=      5-min Rain = 0
KVP1 231751Z 04015KT 11/10 A301 RMK A01 T01070097  RH  094%=      5-min Rain = 0
KVP1 231752Z 03015KT 11/10 A301 RMK A01 T01060097  RH  094%=      5-min Rain = 0
KVP1 231753Z 03016KT 11/10 A301 RMK A01 T01060096  RH  093%=      5-min Rain = 0
KVP1 231754Z 03016KT 11/10 A301 RMK A01 T01060096  RH  093%=      5-min Rain = 0
KVP1 231755Z 03016KT 11/10 A301 RMK A01 T01060095  RH  093%=      5-min Rain = 0
KVP1 231756Z 03013KT 11/10 A301 RMK A01 T01070096  RH  093%=      5-min Rain = 0
KVP1 231757Z 03014KT 11/10 A301 RMK A01 T01080097  RH  093%=      5-min Rain = 0
KVP1 231758Z 03013KT 11/10 A301 RMK A01 T01090098  RH  093%=      5-min Rain = 0
KVP1 231759Z 03012G18KT 11/10 A301 RMK A01 T01100098  RH  093%=      5-min Rain = 0
KVP1 231800Z 03014KT 11/10 A301 RMK A01 T01100098  RH  092%=      5-min Rain = 0
KVP1 231801Z 03015KT 11/10 A301 RMK A01 T01100097  RH  091%=      5-min Rain = 0
KVP1 231802Z 03013KT 11/10 A301 RMK A01 T01100097  RH  092%=      5-min Rain = 0
KVP1 231803Z 03013KT 11/10 A301 RMK A01 T01100097  RH  091%=      5-min Rain = 0
KVP1 231804Z 02014KT 11/10 A301 RMK A01 T01100097  RH  092%=      5-min Rain = 0
KVP1 231805Z 03014KT 11/10 A301 RMK A01 T01100097  RH  091%=      5-min Rain = 0
KVP1 231806Z 03012KT 11/10 A301 RMK A01 T01100098  RH  092%=      5-min Rain = 0
KVP1 231807Z 02011G16KT 11/10 A301 RMK A01 T01110099  RH  093%=      5-min Rain = 0
KVP1 231808Z 03012KT 11/10 A301 RMK A01 T01110098  RH  091%=      5-min Rain = 0
KVP1 231809Z 03013KT 11/10 A301 RMK A01 T01110098  RH  092%=      5-min Rain = 0
KVP1 231810Z 02013KT 11/10 A301 RMK A01 T01110097  RH  091%=      5-min Rain = 0
KVP1 231811Z 02014KT 11/10 A301 RMK A01 T01100095  RH  090%=      5-min Rain = 0
KVP1 231812Z 03014KT 11/10 A301 RMK A01 T01090096  RH  091%=      5-min Rain = 0
KVP1 231813Z 02012KT 11/10 A301 RMK A01 T01090096  RH  092%=      5-min Rain = 0
KVP1 231814Z 01010KT 11/10 A301 RMK A01 T01090097  RH  092%=      5-min Rain = 0
KVP1 231815Z 01012KT 11/10 A301 RMK A01 T01090098  RH  093%=      5-min Rain = 0
KVP1 231816Z 02012KT 11/10 A301 RMK A01 T01090096  RH  092%=      5-min Rain = 0
KVP1 231817Z 02010KT 11/10 A301 RMK A01 T01090096  RH  092%=      5-min Rain = 0
KVP1 231818Z 02010KT 11/10 A301 RMK A01 T01090098  RH  093%=      5-min Rain = 0
KVP1 231819Z 02008KT 11/10 A301 RMK A01 T01090097  RH  092%=      5-min Rain = 0
KVP1 231820Z 01011G16KT 11/10 A301 RMK A01 T01100098  RH  093%=      5-min Rain = 0
KVP1 231821Z 01011KT 11/10 A301 RMK A01 T01100096  RH  091%=      5-min Rain = 0
KVP1 231822Z 02012KT 11/09 A301 RMK A01 T01090094  RH  090%=      5-min Rain = 0
KVP1 231823Z 02014KT 11/09 A301 RMK A01 T01090093  RH  090%=      5-min Rain = 0
KVP1 231824Z 02011KT 11/09 A301 RMK A01 T01090092  RH  089%=      5-min Rain = 0
KVP1 231825Z 01013KT 11/09 A301 RMK A01 T01090093  RH  090%=      5-min Rain = 0
KVP1 231826Z 02012KT 11/09 A301 RMK A01 T01090091  RH  089%=      5-min Rain = 0
KVP1 231827Z 01013KT 11/09 A301 RMK A01 T01100093  RH  089%=      5-min Rain = 0
KVP1 231828Z 01011G16KT 11/09 A301 RMK A01 T01110092  RH  088%=      5-min Rain = 0
KVP1 231829Z 02011G16KT 11/09 A301 RMK A01 T01110093  RH  089%=      5-min Rain = 0
KVP1 231830Z 03014KT 11/09 A301 RMK A01 T01110094  RH  089%=      5-min Rain = 0
KVP1 231831Z 02012KT 11/09 A301 RMK A01 T01120091  RH  087%=      5-min Rain = 0
KVP1 231832Z 02010KT 11/09 A3011 RMK A01 T01110093  RH  088%=      5-min Rain = 0
KVP1 231833Z 02011KT 11/10 A3011 RMK A01 T01120095  RH  089%=      5-min Rain = 0
KVP1 231834Z 03012KT 11/09 A301 RMK A01 T01130089  RH  085%=      5-min Rain = 0
KVP1 231835Z 01011KT 11/09 A301 RMK A01 T01130086  RH  084%=      5-min Rain = 0
KVP1 231836Z 02014KT 11/09 A301 RMK A01 T01130086  RH  083%=      5-min Rain = 0
KVP1 231837Z 02013KT 11/08 A301 RMK A01 T01130082  RH  081%=      5-min Rain = 0
KVP1 231838Z 03012KT 11/08 A301 RMK A01 T01120081  RH  081%=      5-min Rain = 0
KVP1 231839Z 03012KT 11/08 A301 RMK A01 T01120084  RH  083%=      5-min Rain = 0
KVP1 231840Z 03011KT 11/09 A301 RMK A01 T01130085  RH  082%=      5-min Rain = 0
KVP1 231841Z 03012KT 12/09 A301 RMK A01 T01150087  RH  083%=      5-min Rain = 0
KVP1 231842Z 03011KT 12/09 A301 RMK A01 T01160085  RH  081%=      5-min Rain = 0
KVP1 231843Z 03012KT 12/09 A301 RMK A01 T01170086  RH  081%=      5-min Rain = 0
KVP1 231844Z 03012KT 12/08 A301 RMK A01 T01170082  RH  079%=      5-min Rain = 0
KVP1 231845Z 03010G15KT 12/09 A301 RMK A01 T01170087  RH  082%=      5-min Rain = 0
KVP1 231846Z 03012KT 12/09 A301 RMK A01 T01190087  RH  081%=      5-min Rain = 0
KVP1 231847Z 02011KT 12/08 A301 RMK A01 T01190084  RH  079%=      5-min Rain = 0
KVP1 231848Z 01011KT 12/09 A301 RMK A01 T01190086  RH  080%=      5-min Rain = 0
KVP1 231849Z 01011KT 12/09 A301 RMK A01 T01190087  RH  081%=      5-min Rain = 0
KVP1 231850Z 02012KT 12/09 A301 RMK A01 T01190086  RH  080%=      5-min Rain = 0
KVP1 231851Z 02011KT 12/09 A301 RMK A01 T01200085  RH  079%=      5-min Rain = 0
KVP1 231852Z 01011KT 12/09 A301 RMK A01 T01200085  RH  079%=      5-min Rain = 0
KVP1 231853Z 02011KT 12/09 A301 RMK A01 T01210089  RH  081%=      5-min Rain = 0
KVP1 231854Z 02011KT 12/09 A301 RMK A01 T01220086  RH  079%=      5-min Rain = 0
KVP1 231855Z 01010KT 12/09 A301 RMK A01 T01220088  RH  080%=      5-min Rain = 0
KVP1 231856Z 02012KT 12/09 A301 RMK A01 T01230089  RH  080%=      5-min Rain = 0
KVP1 231857Z 02012KT 12/09 A301 RMK A01 T01240087  RH  078%=      5-min Rain = 0
KVP1 231858Z 02011KT 12/09 A301 RMK A01 T01240088  RH  079%=      5-min Rain = 0
KVP1 231859Z 03012KT 12/09 A301 RMK A01 T01240089  RH  079%=      5-min Rain = 0
KVP1 231900Z 03011KT 12/09 A301 RMK A01 T01240091  RH  080%=      5-min Rain = 0
KVP1 231901Z 03011KT 13/09 A301 RMK A01 T01260090  RH  079%=      5-min Rain = 0
KVP1 231902Z 03013KT 13/09 A3009 RMK A01 T01250087  RH  077%=      5-min Rain = 0
KVP1 231903Z 03011KT 12/09 A3009 RMK A01 T01240086  RH  078%=      5-min Rain = 0
KVP1 231904Z 02014KT 12/09 A3009 RMK A01 T01230086  RH  078%=      5-min Rain = 0
KVP1 231905Z 03010KT 12/09 A3009 RMK A01 T01230086  RH  078%=      5-min Rain = 0
KVP1 231906Z 01011KT 12/09 A3009 RMK A01 T01240090  RH  080%=      5-min Rain = 0
KVP1 231907Z 02008KT 13/09 A3009 RMK A01 T01260092  RH  080%=      5-min Rain = 0
KVP1 231908Z 01011KT 13/10 A3009 RMK A01 T01300095  RH  080%=      5-min Rain = 0
KVP1 231909Z 01011KT 13/09 A3009 RMK A01 T01300088  RH  076%=      5-min Rain = 0
KVP1 231910Z 01010KT 13/09 A3009 RMK A01 T01270088  RH  077%=      5-min Rain = 0
KVP1 231911Z 01012KT 13/08 A3009 RMK A01 T01270083  RH  075%=      5-min Rain = 0
KVP1 231912Z 01011KT 13/08 A3009 RMK A01 T01250083  RH  076%=      5-min Rain = 0
KVP1 231913Z 00009KT 13/09 A3009 RMK A01 T01260086  RH  077%=      5-min Rain = 0
KVP1 231914Z 01008KT 13/09 A3009 RMK A01 T01280090  RH  077%=      5-min Rain = 0
KVP1 231915Z 02011KT 13/09 A3009 RMK A01 T01300086  RH  074%=      5-min Rain = 0
KVP1 231916Z 01011KT 13/09 A3009 RMK A01 T01300086  RH  074%=      5-min Rain = 0
KVP1 231917Z 02011KT 13/09 A3009 RMK A01 T01310086  RH  074%=      5-min Rain = 0
KVP1 231918Z 03014KT 13/09 A3008 RMK A01 T01320086  RH  073%=      5-min Rain = 0
KVP1 231919Z 03011KT 13/09 A3008 RMK A01 T01320089  RH  075%=      5-min Rain = 0
KVP1 231920Z 02011KT 13/09 A3009 RMK A01 T01340089  RH  074%=      5-min Rain = 0
KVP1 231921Z 02012KT 13/09 A3009 RMK A01 T01340086  RH  073%=      5-min Rain = 0
KVP1 231922Z 03014KT 13/09 A3009 RMK A01 T01340089  RH  074%=      5-min Rain = 0
KVP1 231923Z 03012KT 13/09 A3009 RMK A01 T01340087  RH  073%=      5-min Rain = 0
KVP1 231924Z 01011KT 13/08 A3009 RMK A01 T01340084  RH  072%=      5-min Rain = 0
KVP1 231925Z 02011KT 14/09 A3009 RMK A01 T01350089  RH  074%=      5-min Rain = 0
KVP1 231926Z 02012KT 14/09 A3009 RMK A01 T01360086  RH  072%=      5-min Rain = 0
KVP1 231927Z 02012KT 14/09 A3009 RMK A01 T01350088  RH  073%=      5-min Rain = 0
KVP1 231928Z 03010KT 14/09 A3009 RMK A01 T01350085  RH  072%=      5-min Rain = 0
KVP1 231929Z 03012KT 14/09 A3009 RMK A01 T01360093  RH  075%=      5-min Rain = 0
KVP1 231930Z 02012KT 14/09 A3009 RMK A01 T01370090  RH  073%=      5-min Rain = 0
KVP1 231931Z 02013KT 14/09 A3009 RMK A01 T01370090  RH  073%=      5-min Rain = 0
KVP1 231932Z 02010KT 14/09 A3009 RMK A01 T01360086  RH  072%=      5-min Rain = 0
KVP1 231933Z 01009KT 13/09 A3009 RMK A01 T01340087  RH  073%=      5-min Rain = 0
KVP1 231934Z 01010G15KT 13/09 A3009 RMK A01 T01340090  RH  074%=      5-min Rain = 0
KVP1 231935Z 02013KT 14/09 A3009 RMK A01 T01360089  RH  073%=      5-min Rain = 0
KVP1 231936Z 02011KT 14/10 A3009 RMK A01 T01360095  RH  076%=      5-min Rain = 0
KVP1 231937Z 02010KT 14/09 A3009 RMK A01 T01390094  RH  074%=      5-min Rain = 0
KVP1 231938Z 01010KT 14/09 A3009 RMK A01 T01390092  RH  073%=      5-min Rain = 0
KVP1 231939Z 01012G17KT 14/09 A3009 RMK A01 T01360087  RH  072%=      5-min Rain = 0
KVP1 231940Z 01012KT 13/09 A3009 RMK A01 T01340089  RH  074%=      5-min Rain = 0
KVP1 231941Z 01010KT 13/09 A3009 RMK A01 T01340090  RH  075%=      5-min Rain = 0
KVP1 231942Z 01011KT 13/09 A3009 RMK A01 T01320090  RH  075%=      5-min Rain = 0
KVP1 231943Z 36008KT 13/09 A3009 RMK A01 T01310092  RH  077%=      5-min Rain = 0
KVP1 231944Z 36011KT 13/09 A3009 RMK A01 T01310093  RH  077%=      5-min Rain = 0
KVP1 231945Z 01010KT 13/09 A3009 RMK A01 T01300093  RH  078%=      5-min Rain = 0
KVP1 231946Z 01012KT 13/09 A3009 RMK A01 T01290091  RH  078%=      5-min Rain = 0
KVP1 231947Z 01012KT 13/09 A3009 RMK A01 T01270089  RH  077%=      5-min Rain = 0
KVP1 231948Z 00011KT 13/09 A3009 RMK A01 T01260090  RH  079%=      5-min Rain = 0
KVP1 231949Z 00010KT 13/09 A3009 RMK A01 T01260090  RH  079%=      5-min Rain = 0
KVP1 231950Z 36008KT 13/09 A3009 RMK A01 T01270094  RH  080%=      5-min Rain = 0
KVP1 231951Z 01010KT 13/09 A3009 RMK A01 T01290093  RH  079%=      5-min Rain = 0
KVP1 231952Z 02011KT 13/09 A3009 RMK A01 T01280091  RH  078%=      5-min Rain = 0
KVP1 231953Z 01011KT 13/09 A3009 RMK A01 T01280091  RH  078%=      5-min Rain = 0
KVP1 231954Z 02009KT 13/09 A3009 RMK A01 T01280091  RH  078%=      5-min Rain = 0
KVP1 231955Z 02010KT 13/09 A3009 RMK A01 T01280090  RH  078%=      5-min Rain = 0
KVP1 231956Z 01011KT 13/09 A3009 RMK A01 T01280092  RH  079%=      5-min Rain = 0
KVP1 231957Z 01011KT 13/09 A3009 RMK A01 T01280089  RH  077%=      5-min Rain = 0
KVP1 231958Z 01009KT 13/09 A3009 RMK A01 T01270090  RH  078%=      5-min Rain = 0
KVP1 231959Z 01009KT 13/09 A3009 RMK A01 T01260089  RH  078%=      5-min Rain = 0
KVP1 232000Z 00010KT 13/09 A3009 RMK A01 T01260089  RH  078%=      5-min Rain = 0
KVP1 232001Z 02008KT 13/09 A3009 RMK A01 T01260092  RH  080%=      5-min Rain = 0
KVP1 232002Z 00008KT 13/10 A3009 RMK A01 T01270095  RH  081%=      5-min Rain = 0
KVP1 232003Z 01011KT 13/09 A3009 RMK A01 T01280092  RH  079%=      5-min Rain = 0
KVP1 232004Z 01011KT 13/09 A3009 RMK A01 T01270090  RH  078%=      5-min Rain = 0
KVP1 232005Z 01010KT 13/09 A3009 RMK A01 T01260090  RH  079%=      5-min Rain = 0
KVP1 232006Z 01010KT 13/09 A3009 RMK A01 T01250089  RH  078%=      5-min Rain = 0
KVP1 232007Z 01009G14KT 12/09 A3009 RMK A01 T01240089  RH  079%=      5-min Rain = 0
KVP1 232008Z 01008KT 13/09 A3009 RMK A01 T01250091  RH  080%=      5-min Rain = 0
KVP1 232009Z 36007KT 13/09 A3009 RMK A01 T01260090  RH  079%=      5-min Rain = 0
KVP1 232010Z 01006KT 13/09 A3009 RMK A01 T01260091  RH  079%=      5-min Rain = 0
KVP1 232011Z 01007KT 13/09 A3009 RMK A01 T01280094  RH  080%=      5-min Rain = 0
KVP1 232012Z 01007KT 13/10 A3009 RMK A01 T01300095  RH  079%=      5-min Rain = 0
KVP1 232013Z 01008KT 13/09 A3009 RMK A01 T01310092  RH  078%=      5-min Rain = 0
KVP1 232014Z 01007KT 13/09 A3009 RMK A01 T01300093  RH  078%=      5-min Rain = 0
KVP1 232015Z 01008KT 13/09 A3009 RMK A01 T01310094  RH  078%=      5-min Rain = 0
KVP1 232016Z 01008KT 13/09 A3009 RMK A01 T01310093  RH  078%=      5-min Rain = 0
KVP1 232017Z 36007KT 13/09 A3009 RMK A01 T01300091  RH  077%=      5-min Rain = 0
KVP1 232018Z 00009KT 13/09 A3009 RMK A01 T01300092  RH  078%=      5-min Rain = 0
KVP1 232019Z 01009KT 13/09 A3009 RMK A01 T01290091  RH  077%=      5-min Rain = 0
KVP1 232020Z 35009KT 13/09 A3009 RMK A01 T01290090  RH  077%=      5-min Rain = 0
KVP1 232021Z 35010KT 13/09 A3009 RMK A01 T01280090  RH  077%=      5-min Rain = 0
KVP1 232022Z 36010KT 13/09 A3009 RMK A01 T01280090  RH  078%=      5-min Rain = 0
KVP1 232023Z 35009KT 13/09 A3009 RMK A01 T01280090  RH  078%=      5-min Rain = 0
KVP1 232024Z 35007KT 13/09 A3009 RMK A01 T01280089  RH  077%=      5-min Rain = 0
KVP1 232025Z 00006KT 13/09 A3009 RMK A01 T01280090  RH  078%=      5-min Rain = 0
KVP1 232026Z 01009KT 13/09 A3009 RMK A01 T01280089  RH  077%=      5-min Rain = 0
KVP1 232027Z 02010KT 13/09 A3009 RMK A01 T01280085  RH  075%=      5-min Rain = 0
KVP1 232028Z 01009KT 13/09 A3009 RMK A01 T01290085  RH  075%=      5-min Rain = 0
KVP1 232029Z 03009KT 13/09 A3009 RMK A01 T01300092  RH  077%=      5-min Rain = 0
KVP1 232030Z 02007KT 13/09 A3009 RMK A01 T01330090  RH  075%=      5-min Rain = 0
KVP1 232031Z 03009KT 13/09 A3009 RMK A01 T01330090  RH  075%=      5-min Rain = 0
KVP1 232032Z 04011KT 13/09 A3009 RMK A01 T01330090  RH  075%=      5-min Rain = 0
KVP1 232033Z 02010KT 13/09 A3009 RMK A01 T01330089  RH  075%=      5-min Rain = 0
KVP1 232034Z 01008KT 13/09 A3009 RMK A01 T01320088  RH  075%=      5-min Rain = 0
KVP1 232035Z 02008KT 13/09 A3009 RMK A01 T01330091  RH  076%=      5-min Rain = 0
KVP1 232036Z 02008KT 14/09 A3009 RMK A01 T01350092  RH  075%=      5-min Rain = 0
KVP1 232037Z 02007KT 14/09 A3009 RMK A01 T01370094  RH  075%=      5-min Rain = 0
KVP1 232038Z 04008KT 14/09 A3008 RMK A01 T01380091  RH  073%=      5-min Rain = 0
KVP1 232039Z 03008KT 14/09 A3008 RMK A01 T01370090  RH  073%=      5-min Rain = 0
KVP1 232040Z 00007KT 14/09 A3009 RMK A01 T01360091  RH  074%=      5-min Rain = 0
KVP1 232041Z 01009KT 14/09 A3009 RMK A01 T01370091  RH  074%=      5-min Rain = 0
KVP1 232042Z 01008KT 14/09 A3009 RMK A01 T01360089  RH  073%=      5-min Rain = 0
KVP1 232043Z 00008KT 14/09 A3009 RMK A01 T01350087  RH  073%=      5-min Rain = 0
KVP1 232044Z 00006KT 13/09 A3009 RMK A01 T01340087  RH  073%=      5-min Rain = 0
KVP1 232045Z 00007KT 13/09 A3009 RMK A01 T01340090  RH  074%=      5-min Rain = 0
KVP1 232046Z 01008KT 14/09 A3009 RMK A01 T01360088  RH  073%=      5-min Rain = 0
KVP1 232047Z 02009KT 14/09 A3008 RMK A01 T01360089  RH  073%=      5-min Rain = 0
KVP1 232048Z 01009KT 14/09 A3008 RMK A01 T01350086  RH  072%=      5-min Rain = 0
KVP1 232049Z 35006KT 13/09 A3008 RMK A01 T01340088  RH  074%=      5-min Rain = 0
KVP1 232050Z 35007KT 14/09 A3008 RMK A01 T01350088  RH  073%=      5-min Rain = 0
KVP1 232051Z 00007KT 14/09 A3008 RMK A01 T01360088  RH  073%=      5-min Rain = 0
KVP1 232052Z 01008KT 14/09 A3008 RMK A01 T01360088  RH  073%=      5-min Rain = 0
KVP1 232053Z 01009KT 14/09 A3008 RMK A01 T01360088  RH  073%=      5-min Rain = 0
KVP1 232054Z 00007KT 14/09 A3008 RMK A01 T01350087  RH  072%=      5-min Rain = 0
KVP1 232055Z 36006KT 14/09 A3008 RMK A01 T01350087  RH  073%=      5-min Rain = 0
KVP1 232056Z 35008KT 13/09 A3008 RMK A01 T01340087  RH  073%=      5-min Rain = 0
KVP1 232057Z 35006KT 13/09 A3008 RMK A01 T01340086  RH  072%=      5-min Rain = 0
KVP1 232058Z 34007KT 13/09 A3008 RMK A01 T01340089  RH  074%=      5-min Rain = 0
KVP1 232059Z 35007KT 14/09 A3008 RMK A01 T01350090  RH  074%=      5-min Rain = 0
KVP1 232100Z 34007KT 14/09 A3008 RMK A01 T01360089  RH  073%=      5-min Rain = 0
KVP1 232101Z 36006KT 14/09 A3008 RMK A01 T01360087  RH  072%=      5-min Rain = 0
KVP1 232102Z 35007KT 14/09 A3008 RMK A01 T01350088  RH  073%=      5-min Rain = 0
KVP1 232103Z 36007KT 14/09 A3008 RMK A01 T01360091  RH  074%=      5-min Rain = 0
KVP1 232104Z 01006KT 14/09 A3008 RMK A01 T01370092  RH  074%=      5-min Rain = 0
KVP1 232105Z 01007KT 14/09 A3008 RMK A01 T01370088  RH  072%=      5-min Rain = 0
KVP1 232106Z 02005KT 14/09 A3008 RMK A01 T01360089  RH  073%=      5-min Rain = 0
KVP1 232107Z 00007KT 14/09 A3008 RMK A01 T01360088  RH  073%=      5-min Rain = 0
KVP1 232108Z 35007KT 14/09 A3008 RMK A01 T01360087  RH  072%=      5-min Rain = 0
KVP1 232109Z 35008KT 14/09 A3008 RMK A01 T01350087  RH  073%=      5-min Rain = 0
KVP1 232110Z 36006KT 13/09 A3008 RMK A01 T01340087  RH  073%=      5-min Rain = 0
KVP1 232111Z 01005KT 14/09 A3008 RMK A01 T01350086  RH  073%=      5-min Rain = 0
KVP1 232112Z 05005KT 14/09 A3008 RMK A01 T01350089  RH  074%=      5-min Rain = 0
KVP1 232113Z 04007KT 14/09 A3008 RMK A01 T01350088  RH  073%=      5-min Rain = 0
KVP1 232114Z 04007KT 14/09 A3008 RMK A01 T01350087  RH  073%=      5-min Rain = 0
KVP1 232115Z 04008KT 14/09 A3008 RMK A01 T01350088  RH  073%=      5-min Rain = 0
KVP1 232116Z 03009KT 14/09 A3008 RMK A01 T01360090  RH  073%=      5-min Rain = 0
KVP1 232117Z 02007KT 14/09 A3008 RMK A01 T01370087  RH  072%=      5-min Rain = 0
KVP1 232118Z 01005KT 14/09 A3008 RMK A01 T01360086  RH  072%=      5-min Rain = 0
KVP1 232119Z 35005KT 14/09 A3008 RMK A01 T01360087  RH  072%=      5-min Rain = 0
KVP1 232120Z 35007KT 14/09 A3008 RMK A01 T01370087  RH  072%=      5-min Rain = 0
KVP1 232121Z 01006KT 14/09 A3008 RMK A01 T01370086  RH  071%=      5-min Rain = 0
KVP1 232122Z 01007KT 14/09 A3008 RMK A01 T01370087  RH  072%=      5-min Rain = 0
KVP1 232123Z 00007KT 14/09 A3008 RMK A01 T01380085  RH  070%=      5-min Rain = 0
KVP1 232124Z 01006KT 14/08 A3008 RMK A01 T01370082  RH  070%=      5-min Rain = 0
KVP1 232125Z 00005KT 14/08 A3008 RMK A01 T01360083  RH  070%=      5-min Rain = 0
KVP1 232126Z 03004KT 14/09 A3008 RMK A01 T01360086  RH  072%=      5-min Rain = 0
KVP1 232127Z 03004KT 14/09 A3008 RMK A01 T01380088  RH  072%=      5-min Rain = 0
KVP1 232128Z 35006KT 14/09 A3008 RMK A01 T01400089  RH  071%=      5-min Rain = 0
KVP1 232129Z 35006KT 14/08 A3008 RMK A01 T01400084  RH  069%=      5-min Rain = 0
KVP1 232130Z 35008KT 14/09 A3008 RMK A01 T01390087  RH  070%=      5-min Rain = 0
KVP1 232131Z 01005KT 14/08 A3008 RMK A01 T01390084  RH  069%=      5-min Rain = 0
KVP1 232132Z 00006KT 14/09 A3008 RMK A01 T01390085  RH  070%=      5-min Rain = 0
KVP1 232133Z 35004KT 14/08 A3008 RMK A01 T01380084  RH  069%=      5-min Rain = 0
KVP1 232134Z 34004KT 14/09 A3008 RMK A01 T01380085  RH  070%=      5-min Rain = 0
KVP1 232135Z 34006KT 14/08 A3007 RMK A01 T01380084  RH  070%=      5-min Rain = 0
KVP1 232136Z 34005KT 14/08 A3007 RMK A01 T01380084  RH  070%=      5-min Rain = 0
KVP1 232137Z 35006KT 14/08 A3007 RMK A01 T01380084  RH  070%=      5-min Rain = 0
KVP1 232138Z 01005KT 14/09 A3007 RMK A01 T01380085  RH  070%=      5-min Rain = 0
KVP1 232139Z 02006KT 14/08 A3007 RMK A01 T01380083  RH  069%=      5-min Rain = 0
KVP1 232140Z 02006KT 14/08 A3007 RMK A01 T01380082  RH  069%=      5-min Rain = 0
KVP1 232141Z 01005KT 14/08 A3007 RMK A01 T01380081  RH  068%=      5-min Rain = 0
KVP1 232142Z 35005KT 14/08 A3007 RMK A01 T01380083  RH  069%=      5-min Rain = 0
KVP1 232143Z 36006KT 14/08 A3007 RMK A01 T01370082  RH  069%=      5-min Rain = 0
KVP1 232144Z 01006KT 14/08 A3007 RMK A01 T01370081  RH  069%=      5-min Rain = 0
KVP1 232145Z 01006KT 14/08 A3008 RMK A01 T01370082  RH  069%=      5-min Rain = 0
KVP1 232146Z 02005KT 14/08 A3008 RMK A01 T01370083  RH  070%=      5-min Rain = 0
KVP1 232147Z 04003KT 14/09 A3008 RMK A01 T01370085  RH  071%=      5-min Rain = 0
KVP1 232148Z 01006KT 14/09 A3007 RMK A01 T01380085  RH  070%=      5-min Rain = 0
KVP1 232149Z 35006KT 14/08 A3007 RMK A01 T01380084  RH  070%=      5-min Rain = 0
KVP1 232150Z 35005KT 14/08 A3007 RMK A01 T01380081  RH  068%=      5-min Rain = 0
KVP1 232151Z 36005KT 14/08 A3007 RMK A01 T01380082  RH  069%=      5-min Rain = 0
KVP1 232152Z 02005KT 14/08 A3007 RMK A01 T01370084  RH  070%=      5-min Rain = 0
KVP1 232153Z 35004KT 14/08 A3007 RMK A01 T01380082  RH  069%=      5-min Rain = 0
KVP1 232154Z 34006KT 14/08 A3007 RMK A01 T01380083  RH  069%=      5-min Rain = 0
KVP1 232155Z 00006KT 14/09 A3007 RMK A01 T01380085  RH  070%=      5-min Rain = 0
KVP1 232156Z 00007KT 14/08 A3007 RMK A01 T01380084  RH  070%=      5-min Rain = 0
KVP1 232157Z 00007KT 14/08 A3007 RMK A01 T01390082  RH  069%=      5-min Rain = 0
KVP1 232158Z 00005KT 14/08 A3007 RMK A01 T01390082  RH  068%=      5-min Rain = 0
KVP1 232159Z 03004KT 14/08 A3007 RMK A01 T01390084  RH  070%=      5-min Rain = 0
KVP1 232200Z 02006KT 14/09 A3007 RMK A01 T01390085  RH  070%=      5-min Rain = 0
KVP1 232201Z 01005KT 14/08 A3007 RMK A01 T01390081  RH  068%=      5-min Rain = 0
KVP1 232202Z 01006KT 14/08 A3007 RMK A01 T01390080  RH  068%=      5-min Rain = 0
KVP1 232203Z 00005KT 14/08 A3007 RMK A01 T01380082  RH  069%=      5-min Rain = 0
KVP1 232204Z 35005KT 14/09 A3007 RMK A01 T01390085  RH  070%=      5-min Rain = 0
KVP1 232205Z 36005KT 14/08 A3007 RMK A01 T01400083  RH  069%=      5-min Rain = 0
KVP1 232206Z 02006KT 14/08 A3007 RMK A01 T01400083  RH  069%=      5-min Rain = 0
KVP1 232207Z 02006KT 14/08 A3007 RMK A01 T01400082  RH  068%=      5-min Rain = 0
KVP1 232208Z 02005KT 14/08 A3007 RMK A01 T01400082  RH  068%=      5-min Rain = 0
KVP1 232209Z 03008KT 14/09 A3007 RMK A01 T01400085  RH  069%=      5-min Rain = 0
KVP1 232210Z 03007KT 14/08 A3007 RMK A01 T01400083  RH  068%=      5-min Rain = 0
KVP1 232211Z 02006KT 14/08 A3007 RMK A01 T01400080  RH  067%=      5-min Rain = 0
KVP1 232212Z 03006KT 14/08 A3007 RMK A01 T01390082  RH  068%=      5-min Rain = 0
KVP1 232213Z 02007KT 14/08 A3007 RMK A01 T01390082  RH  069%=      5-min Rain = 0
KVP1 232214Z 01005KT 14/08 A3007 RMK A01 T01390082  RH  068%=      5-min Rain = 0
KVP1 232215Z 36007KT 14/08 A3007 RMK A01 T01390083  RH  069%=      5-min Rain = 0
KVP1 232216Z 00007KT 14/08 A3007 RMK A01 T01390083  RH  069%=      5-min Rain = 0
KVP1 232217Z 01007KT 14/08 A3007 RMK A01 T01400084  RH  069%=      5-min Rain = 0
KVP1 232218Z 01008KT 14/08 A3007 RMK A01 T01400082  RH  068%=      5-min Rain = 0
KVP1 232219Z 01007KT 14/08 A3007 RMK A01 T01390082  RH  068%=      5-min Rain = 0
KVP1 232220Z 01008KT 14/08 A3007 RMK A01 T01390082  RH  068%=      5-min Rain = 0
KVP1 232221Z 01007KT 14/08 A3007 RMK A01 T01390082  RH  069%=      5-min Rain = 0
KVP1 232222Z 01007KT 14/09 A3007 RMK A01 T01390085  RH  070%=      5-min Rain = 0
KVP1 232223Z 01007KT 14/08 A3007 RMK A01 T01400084  RH  069%=      5-min Rain = 0
KVP1 232224Z 01008KT 14/08 A3007 RMK A01 T01400084  RH  069%=      5-min Rain = 0
KVP1 232225Z 35006KT 14/09 A3007 RMK A01 T01400086  RH  070%=      5-min Rain = 0
KVP1 232226Z 34008KT 14/09 A3007 RMK A01 T01410086  RH  070%=      5-min Rain = 0
KVP1 232227Z 35007KT 14/09 A3007 RMK A01 T01410086  RH  069%=      5-min Rain = 0
KVP1 232228Z 01006KT 14/09 A3007 RMK A01 T01410085  RH  069%=      5-min Rain = 0
KVP1 232229Z 00006KT 14/09 A3007 RMK A01 T01410087  RH  070%=      5-min Rain = 0
KVP1 232230Z 36007KT 14/09 A3007 RMK A01 T01420087  RH  069%=      5-min Rain = 0
KVP1 232231Z 01007G12KT 14/09 A3007 RMK A01 T01430086  RH  069%=      5-min Rain = 0
KVP1 232232Z 02008KT 14/09 A3007 RMK A01 T01430086  RH  069%=      5-min Rain = 0
KVP1 232233Z 01007KT 14/08 A3007 RMK A01 T01430084  RH  068%=      5-min Rain = 0
KVP1 232234Z 02007KT 14/08 A3007 RMK A01 T01430084  RH  068%=      5-min Rain = 0
KVP1 232235Z 02005KT 14/08 A3007 RMK A01 T01420083  RH  068%=      5-min Rain = 0
KVP1 232236Z 00007KT 14/09 A3007 RMK A01 T01420085  RH  068%=      5-min Rain = 0
KVP1 232237Z 35009KT 14/08 A3007 RMK A01 T01420084  RH  068%=      5-min Rain = 0
KVP1 232238Z 35008KT 14/08 A3007 RMK A01 T01420084  RH  068%=      5-min Rain = 0
KVP1 232239Z 35008KT 14/08 A3007 RMK A01 T01420084  RH  068%=      5-min Rain = 0
KVP1 232240Z 01007KT 14/08 A3007 RMK A01 T01420083  RH  068%=      5-min Rain = 0
KVP1 232241Z 01009KT 14/08 A3007 RMK A01 T01410084  RH  068%=      5-min Rain = 0
KVP1 232242Z 02008KT 14/08 A3007 RMK A01 T01420084  RH  068%=      5-min Rain = 0
KVP1 232243Z 02007KT 14/08 A3007 RMK A01 T01410084  RH  068%=      5-min Rain = 0
KVP1 232244Z 02007KT 14/09 A3007 RMK A01 T01420087  RH  069%=      5-min Rain = 0
KVP1 232245Z 01006KT 14/09 A3007 RMK A01 T01430087  RH  069%=      5-min Rain = 0
KVP1 232246Z 01009KT 14/09 A3006 RMK A01 T01430085  RH  068%=      5-min Rain = 0
KVP1 232247Z 00008KT 14/08 A3007 RMK A01 T01430084  RH  067%=      5-min Rain = 0
KVP1 232248Z 36008KT 14/08 A3007 RMK A01 T01420083  RH  068%=      5-min Rain = 0
KVP1 232249Z 02007KT 14/09 A3007 RMK A01 T01420085  RH  069%=      5-min Rain = 0
KVP1 232250Z 01007KT 14/09 A3007 RMK A01 T01420085  RH  068%=      5-min Rain = 0
KVP1 232251Z 00007KT 14/08 A3007 RMK A01 T01420084  RH  068%=      5-min Rain = 0
KVP1 232252Z 01008KT 14/08 A3007 RMK A01 T01410084  RH  069%=      5-min Rain = 0
KVP1 232253Z 01009KT 14/08 A3006 RMK A01 T01410084  RH  068%=      5-min Rain = 0
KVP1 232254Z 01007KT 14/08 A3006 RMK A01 T01410084  RH  069%=      5-min Rain = 0
KVP1 232255Z 02008KT 14/09 A3006 RMK A01 T01410086  RH  069%=      5-min Rain = 0
KVP1 232256Z 01010KT 14/08 A3006 RMK A01 T01410084  RH  069%=      5-min Rain = 0
KVP1 232257Z 00009KT 14/08 A3006 RMK A01 T01410083  RH  068%=      5-min Rain = 0
KVP1 232258Z 00009KT 14/08 A3006 RMK A01 T01400084  RH  069%=      5-min Rain = 0
KVP1 232259Z 01009KT 14/08 A3006 RMK A01 T01400083  RH  068%=      5-min Rain = 0
KVP1 232300Z 01008KT 14/08 A3006 RMK A01 T01400082  RH  068%=      5-min Rain = 0
KVP1 232301Z 02008KT 14/08 A3006 RMK A01 T01400082  RH  068%=      5-min Rain = 0
KVP1 232302Z 01007KT 14/08 A3006 RMK A01 T01400082  RH  068%=      5-min Rain = 0
KVP1 232303Z 01008KT 14/08 A3006 RMK A01 T01400083  RH  069%=      5-min Rain = 0
KVP1 232304Z 01008KT 14/08 A3006 RMK A01 T01400084  RH  069%=      5-min Rain = 0
KVP1 232305Z 36010KT 14/08 A3006 RMK A01 T01410083  RH  068%=      5-min Rain = 0
KVP1 232306Z 01008KT 14/08 A3006 RMK A01 T01410084  RH  068%=      5-min Rain = 0
KVP1 232307Z 02007KT 14/09 A3006 RMK A01 T01420085  RH  069%=      5-min Rain = 0
KVP1 232308Z 02005KT 14/08 A3006 RMK A01 T01420084  RH  068%=      5-min Rain = 0
KVP1 232309Z 00006KT 14/08 A3006 RMK A01 T01420084  RH  068%=      5-min Rain = 0
KVP1 232310Z 36008KT 14/08 A3006 RMK A01 T01420083  RH  067%=      5-min Rain = 0
KVP1 232311Z 00008KT 14/08 A3006 RMK A01 T01420081  RH  067%=      5-min Rain = 0
KVP1 232312Z 01007KT 14/08 A3006 RMK A01 T01410082  RH  068%=      5-min Rain = 0
KVP1 232313Z 01008KT 14/08 A3006 RMK A01 T01410082  RH  068%=      5-min Rain = 0
KVP1 232314Z 00010KT 14/08 A3006 RMK A01 T01400082  RH  068%=      5-min Rain = 0
KVP1 232315Z 01009KT 14/08 A3006 RMK A01 T01400081  RH  067%=      5-min Rain = 0
KVP1 232316Z 00008KT 14/08 A3006 RMK A01 T01400080  RH  067%=      5-min Rain = 0
KVP1 232317Z 01010KT 14/08 A3006 RMK A01 T01390081  RH  068%=      5-min Rain = 0
KVP1 232318Z 01008KT 14/08 A3006 RMK A01 T01400081  RH  068%=      5-min Rain = 0
KVP1 232319Z 02008KT 14/08 A3006 RMK A01 T01400082  RH  068%=      5-min Rain = 0
KVP1 232320Z 00008KT 14/08 A3006 RMK A01 T01400082  RH  068%=      5-min Rain = 0
KVP1 232321Z 01008KT 14/08 A3006 RMK A01 T01400083  RH  068%=      5-min Rain = 0
KVP1 232322Z 01007KT 14/08 A3006 RMK A01 T01400082  RH  068%=      5-min Rain = 0
KVP1 232323Z 35008KT 14/08 A3006 RMK A01 T01410083  RH  068%=      5-min Rain = 0
KVP1 232324Z 35008KT 14/09 A3006 RMK A01 T01410085  RH  069%=      5-min Rain = 0
KVP1 232325Z 35008KT 14/08 A3006 RMK A01 T01410084  RH  068%=      5-min Rain = 0
KVP1 232326Z 35008KT 14/09 A3006 RMK A01 T01410085  RH  069%=      5-min Rain = 0
KVP1 232327Z 35010KT 14/08 A3006 RMK A01 T01410084  RH  069%=      5-min Rain = 0
KVP1 232328Z 35010KT 14/08 A3006 RMK A01 T01410082  RH  068%=      5-min Rain = 0
KVP1 232329Z 35009KT 14/08 A3006 RMK A01 T01400083  RH  068%=      5-min Rain = 0
KVP1 232330Z 35008KT 14/08 A3006 RMK A01 T01400084  RH  069%=      5-min Rain = 0
KVP1 232331Z 35008KT 14/08 A3006 RMK A01 T01400084  RH  069%=      5-min Rain = 0
KVP1 232332Z 01008KT 14/08 A3006 RMK A01 T01400083  RH  069%=      5-min Rain = 0
KVP1 232333Z 01010KT 14/08 A3006 RMK A01 T01400083  RH  069%=      5-min Rain = 0
KVP1 232334Z 01009KT 14/08 A3006 RMK A01 T01400082  RH  068%=      5-min Rain = 0
KVP1 232335Z 36007KT 14/08 A3006 RMK A01 T01390083  RH  069%=      5-min Rain = 0
KVP1 232336Z 36007KT 14/09 A3006 RMK A01 T01390085  RH  070%=      5-min Rain = 0
KVP1 232337Z 00006KT 14/09 A3006 RMK A01 T01400086  RH  070%=      5-min Rain = 0
KVP1 232338Z 00009KT 14/09 A3006 RMK A01 T01400086  RH  070%=      5-min Rain = 0
KVP1 232339Z 35007KT 14/09 A3006 RMK A01 T01400086  RH  070%=      5-min Rain = 0
KVP1 232340Z 35008KT 14/09 A3006 RMK A01 T01390087  RH  071%=      5-min Rain = 0
KVP1 232341Z 36010KT 14/09 A3006 RMK A01 T01390089  RH  072%=      5-min Rain = 0
KVP1 232342Z 01009KT 14/09 A3006 RMK A01 T01390086  RH  070%=      5-min Rain = 0
KVP1 232343Z 35009KT 14/09 A3006 RMK A01 T01390086  RH  070%=      5-min Rain = 0
KVP1 232344Z 36007KT 14/09 A3006 RMK A01 T01390088  RH  071%=      5-min Rain = 0
KVP1 232345Z 36007KT 14/09 A3006 RMK A01 T01390089  RH  072%=      5-min Rain = 0
KVP1 232346Z 00009KT 14/09 A3006 RMK A01 T01390087  RH  071%=      5-min Rain = 0
KVP1 232347Z 00009KT 14/08 A3006 RMK A01 T01390084  RH  070%=      5-min Rain = 0
KVP1 232348Z 00009KT 14/08 A3006 RMK A01 T01380083  RH  069%=      5-min Rain = 0
KVP1 232349Z 01007KT 14/08 A3006 RMK A01 T01380084  RH  070%=      5-min Rain = 0
KVP1 232350Z 01009KT 14/08 A3006 RMK A01 T01380084  RH  070%=      5-min Rain = 0
KVP1 232351Z 01007KT 14/08 A3006 RMK A01 T01380083  RH  070%=      5-min Rain = 0
KVP1 232352Z 00007KT 14/08 A3006 RMK A01 T01380082  RH  069%=      5-min Rain = 0
KVP1 232353Z 00007KT 14/08 A3006 RMK A01 T01380083  RH  070%=      5-min Rain = 0
KVP1 232354Z 01006KT 14/09 A3006 RMK A01 T01380085  RH  070%=      5-min Rain = 0
KVP1 232355Z 36005KT 14/09 A3006 RMK A01 T01380085  RH  071%=      5-min Rain = 0
KVP1 232356Z 00005KT 14/09 A3006 RMK A01 T01380087  RH  071%=      5-min Rain = 0
KVP1 232357Z 00007KT 14/09 A3006 RMK A01 T01380086  RH  071%=      5-min Rain = 0
KVP1 232358Z 01006KT 14/09 A3006 RMK A01 T01380087  RH  071%=      5-min Rain = 0
KVP1 232359Z 00006KT 14/09 A3006 RMK A01 T01380087  RH  071%=      5-min Rain = 0
KVP1 240000Z 35007KT 14/09 A3006 RMK A01 T01370087  RH  071%=      5-min Rain = 0
KVP1 240001Z 35007KT 14/09 A3006 RMK A01 T01370087  RH  071%=      5-min Rain = 0
KVP1 240002Z 00005KT 14/09 A3006 RMK A01 T01370087  RH  072%=      5-min Rain = 0
KVP1 240003Z 36006KT 14/09 A3006 RMK A01 T01370088  RH  073%=      5-min Rain = 0
KVP1 240004Z 35008KT 14/09 A3006 RMK A01 T01370089  RH  073%=      5-min Rain = 0
KVP1 240005Z 36008KT 14/09 A3006 RMK A01 T01370087  RH  072%=      5-min Rain = 0
KVP1 240006Z 36007KT 14/09 A3006 RMK A01 T01370088  RH  073%=      5-min Rain = 0
KVP1 240007Z 00008KT 14/09 A3006 RMK A01 T01370088  RH  072%=      5-min Rain = 0
KVP1 240008Z 35008KT 14/09 A3006 RMK A01 T01370087  RH  072%=      5-min Rain = 0
KVP1 240009Z 35008KT 14/09 A3006 RMK A01 T01360086  RH  072%=      5-min Rain = 0
KVP1 240010Z 35008KT 14/09 A3006 RMK A01 T01370086  RH  071%=      5-min Rain = 0
KVP1 240011Z 35009KT 14/09 A3006 RMK A01 T01360085  RH  071%=      5-min Rain = 0
KVP1 240012Z 35008KT 14/09 A3006 RMK A01 T01360085  RH  071%=      5-min Rain = 0
KVP1 240013Z 34009KT 14/09 A3006 RMK A01 T01360086  RH  071%=      5-min Rain = 0
KVP1 240014Z 35008KT 14/09 A3006 RMK A01 T01360085  RH  071%=      5-min Rain = 0
KVP1 240015Z 35007KT 14/08 A3006 RMK A01 T01360084  RH  071%=      5-min Rain = 0
KVP1 240016Z 35007KT 14/09 A3006 RMK A01 T01360086  RH  072%=      5-min Rain = 0
KVP1 240017Z 36006KT 14/09 A3006 RMK A01 T01360086  RH  072%=      5-min Rain = 0
KVP1 240018Z 35008KT 14/09 A3006 RMK A01 T01360086  RH  072%=      5-min Rain = 0
KVP1 240019Z 35007KT 14/09 A3006 RMK A01 T01360085  RH  071%=      5-min Rain = 0
KVP1 240020Z 36006KT 14/09 A3006 RMK A01 T01360086  RH  072%=      5-min Rain = 0
KVP1 240021Z 00007KT 14/09 A3006 RMK A01 T01360087  RH  072%=      5-min Rain = 0
KVP1 240022Z 36007KT 14/09 A3006 RMK A01 T01360085  RH  071%=      5-min Rain = 0
KVP1 240023Z 36009KT 14/08 A3006 RMK A01 T01360083  RH  070%=      5-min Rain = 0
KVP1 240024Z 36007KT 14/08 A3006 RMK A01 T01360082  RH  070%=      5-min Rain = 0
KVP1 240025Z 35008KT 14/08 A3006 RMK A01 T01350082  RH  070%=      5-min Rain = 0
KVP1 240026Z 35007KT 14/08 A3006 RMK A01 T01350082  RH  070%=      5-min Rain = 0
KVP1 240027Z 35010KT 14/08 A3006 RMK A01 T01350081  RH  070%=      5-min Rain = 0
KVP1 240028Z 35010KT 14/08 A3006 RMK A01 T01350081  RH  070%=      5-min Rain = 0
KVP1 240029Z 35009KT 14/08 A3006 RMK A01 T01350080  RH  069%=      5-min Rain = 0
KVP1 240030Z 36008KT 13/08 A3006 RMK A01 T01340080  RH  069%=      5-min Rain = 0
KVP1 240031Z 36008KT 13/08 A3006 RMK A01 T01340080  RH  070%=      5-min Rain = 0
KVP1 240032Z 36009KT 13/08 A3006 RMK A01 T01340080  RH  070%=      5-min Rain = 0
KVP1 240033Z 36008KT 13/08 A3006 RMK A01 T01340077  RH  069%=      5-min Rain = 0
KVP1 240034Z 36007KT 13/08 A3006 RMK A01 T01340077  RH  068%=      5-min Rain = 0
KVP1 240035Z 35009KT 13/08 A3006 RMK A01 T01340076  RH  068%=      5-min Rain = 0
KVP1 240036Z 35009KT 13/07 A3006 RMK A01 T01330074  RH  067%=      5-min Rain = 0
KVP1 240037Z 36008KT 13/07 A3006 RMK A01 T01330073  RH  067%=      5-min Rain = 0
KVP1 240038Z 35008KT 13/08 A3006 RMK A01 T01330075  RH  068%=      5-min Rain = 0
KVP1 240039Z 35008KT 13/08 A3006 RMK A01 T01330076  RH  069%=      5-min Rain = 0
KVP1 240040Z 35008KT 13/08 A3006 RMK A01 T01330076  RH  069%=      5-min Rain = 0
KVP1 240041Z 35008KT 13/08 A3006 RMK A01 T01330076  RH  069%=      5-min Rain = 0
KVP1 240042Z 01006KT 13/08 A3006 RMK A01 T01330077  RH  069%=      5-min Rain = 0
KVP1 240043Z 36007KT 13/08 A3006 RMK A01 T01320077  RH  069%=      5-min Rain = 0
KVP1 240044Z 35007KT 13/08 A3006 RMK A01 T01320078  RH  069%=      5-min Rain = 0
KVP1 240045Z 36008KT 13/08 A3006 RMK A01 T01320076  RH  069%=      5-min Rain = 0
KVP1 240046Z 00007KT 13/07 A3006 RMK A01 T01320074  RH  068%=      5-min Rain = 0
KVP1 240047Z 36007KT 13/07 A3006 RMK A01 T01320074  RH  068%=      5-min Rain = 0
KVP1 240048Z 00008KT 13/07 A3006 RMK A01 T01320074  RH  068%=      5-min Rain = 0
KVP1 240049Z 36007KT 13/07 A3006 RMK A01 T01320073  RH  067%=      5-min Rain = 0
KVP1 240050Z 00007KT 13/07 A3006 RMK A01 T01320073  RH  067%=      5-min Rain = 0
KVP1 240051Z 36007KT 13/07 A3006 RMK A01 T01320071  RH  067%=      5-min Rain = 0
KVP1 240052Z 36007KT 13/07 A3005 RMK A01 T01320072  RH  067%=      5-min Rain = 0
KVP1 240053Z 00008KT 13/07 A3005 RMK A01 T01320071  RH  066%=      5-min Rain = 0
KVP1 240054Z 36007KT 13/07 A3005 RMK A01 T01320070  RH  066%=      5-min Rain = 0
KVP1 240055Z 00007KT 13/07 A3005 RMK A01 T01310071  RH  067%=      5-min Rain = 0
KVP1 240056Z 35007KT 13/07 A3005 RMK A01 T01310071  RH  067%=      5-min Rain = 0
KVP1 240057Z 00007KT 13/07 A3005 RMK A01 T01310070  RH  067%=      5-min Rain = 0
KVP1 240058Z 36007KT 13/07 A3005 RMK A01 T01310070  RH  067%=      5-min Rain = 0
KVP1 240059Z 35007KT 13/07 A3005 RMK A01 T01300071  RH  067%=      5-min Rain = 0
KVP1 240100Z 35007KT 13/07 A3005 RMK A01 T01300072  RH  068%=      5-min Rain = 0
KVP1 240101Z 35006KT 13/07 A3005 RMK A01 T01290073  RH  068%=      5-min Rain = 0
KVP1 240102Z 35007KT 13/07 A3005 RMK A01 T01290073  RH  069%=      5-min Rain = 0
KVP1 240103Z 35007KT 13/07 A3005 RMK A01 T01280073  RH  069%=      5-min Rain = 0
KVP1 240104Z 35006KT 13/08 A3005 RMK A01 T01280075  RH  070%=      5-min Rain = 0
KVP1 240105Z 34006KT 13/08 A3005 RMK A01 T01270076  RH  071%=      5-min Rain = 0
KVP1 240106Z 35007KT 13/08 A3005 RMK A01 T01270076  RH  071%=      5-min Rain = 0
KVP1 240107Z 35007KT 13/08 A3005 RMK A01 T01260076  RH  071%=      5-min Rain = 0
KVP1 240108Z 35006KT 13/08 A3005 RMK A01 T01250076  RH  072%=      5-min Rain = 0
KVP1 240109Z 35007KT 13/08 A3005 RMK A01 T01250077  RH  072%=      5-min Rain = 0
KVP1 240110Z 35007KT 13/08 A3005 RMK A01 T01250076  RH  072%=      5-min Rain = 0
KVP1 240111Z 35007KT 12/08 A3004 RMK A01 T01240077  RH  073%=      5-min Rain = 0
KVP1 240112Z 35007KT 12/08 A3004 RMK A01 T01240077  RH  073%=      5-min Rain = 0
KVP1 240113Z 35007KT 12/08 A3004 RMK A01 T01230077  RH  073%=      5-min Rain = 0
KVP1 240114Z 35007KT 12/08 A3004 RMK A01 T01220076  RH  073%=      5-min Rain = 0
KVP1 240115Z 35008KT 12/08 A3004 RMK A01 T01220076  RH  073%=      5-min Rain = 0
KVP1 240116Z 35008KT 12/08 A3004 RMK A01 T01220075  RH  073%=      5-min Rain = 0
KVP1 240117Z 35007KT 12/08 A3004 RMK A01 T01220075  RH  073%=      5-min Rain = 0
KVP1 240118Z 35007KT 12/08 A3004 RMK A01 T01210075  RH  073%=      5-min Rain = 0
KVP1 240119Z 35007KT 12/08 A3004 RMK A01 T01210075  RH  074%=      5-min Rain = 0
KVP1 240120Z 35007KT 12/08 A3004 RMK A01 T01210075  RH  074%=      5-min Rain = 0
KVP1 240121Z 35007KT 12/08 A3004 RMK A01 T01200075  RH  074%=      5-min Rain = 0
KVP1 240122Z 35007KT 12/08 A3004 RMK A01 T01200076  RH  074%=      5-min Rain = 0
KVP1 240123Z 35006KT 12/08 A3004 RMK A01 T01190076  RH  075%=      5-min Rain = 0
KVP1 240124Z 35007KT 12/08 A3004 RMK A01 T01190076  RH  075%=      5-min Rain = 0
KVP1 240125Z 35006KT 12/08 A3004 RMK A01 T01180076  RH  075%=      5-min Rain = 0
KVP1 240126Z 35006KT 12/08 A3004 RMK A01 T01180076  RH  076%=      5-min Rain = 0
KVP1 240127Z 35007KT 12/08 A3004 RMK A01 T01170076  RH  076%=      5-min Rain = 0
KVP1 240128Z 35007KT 12/08 A3004 RMK A01 T01180076  RH  076%=      5-min Rain = 0
KVP1 240129Z 35006KT 12/08 A3004 RMK A01 T01170076  RH  076%=      5-min Rain = 0
KVP1 240130Z 35007KT 12/08 A3004 RMK A01 T01170076  RH  076%=      5-min Rain = 0
KVP1 240131Z 36007KT 12/08 A3004 RMK A01 T01170076  RH  076%=      5-min Rain = 0
KVP1 240132Z 35006KT 12/08 A3005 RMK A01 T01170076  RH  076%=      5-min Rain = 0
KVP1 240133Z 35006KT 12/08 A3005 RMK A01 T01160076  RH  076%=      5-min Rain = 0
KVP1 240134Z 35005KT 12/08 A3005 RMK A01 T01160076  RH  077%=      5-min Rain = 0
KVP1 240135Z 00005KT 12/08 A3005 RMK A01 T01150076  RH  077%=      5-min Rain = 0
KVP1 240136Z 35005KT 12/08 A3005 RMK A01 T01150077  RH  077%=      5-min Rain = 0
KVP1 240137Z 36006KT 12/08 A3005 RMK A01 T01150077  RH  077%=      5-min Rain = 0
KVP1 240138Z 36006KT 11/08 A3005 RMK A01 T01140077  RH  078%=      5-min Rain = 0
KVP1 240139Z 36005KT 11/08 A3005 RMK A01 T01140077  RH  078%=      5-min Rain = 0
KVP1 240140Z 00005KT 11/08 A3005 RMK A01 T01140077  RH  078%=      5-min Rain = 0
KVP1 240141Z 00004KT 11/08 A3005 RMK A01 T01140077  RH  078%=      5-min Rain = 0
KVP1 240142Z 01004KT 11/08 A3005 RMK A01 T01140077  RH  078%=      5-min Rain = 0
KVP1 240143Z 01004KT 11/08 A3005 RMK A01 T01130077  RH  079%=      5-min Rain = 0
KVP1 240144Z 01004KT 11/08 A3005 RMK A01 T01130077  RH  078%=      5-min Rain = 0
KVP1 240145Z 01005KT 11/08 A3006 RMK A01 T01130076  RH  078%=      5-min Rain = 0
KVP1 240146Z 02005KT 11/08 A3006 RMK A01 T01130075  RH  077%=      5-min Rain = 0
KVP1 240147Z 01004KT 11/08 A3006 RMK A01 T01130075  RH  077%=      5-min Rain = 0
KVP1 240148Z 02004KT 11/08 A3006 RMK A01 T01130075  RH  077%=      5-min Rain = 0
KVP1 240149Z 02005KT 11/08 A3006 RMK A01 T01130075  RH  077%=      5-min Rain = 0
KVP1 240150Z 02005KT 11/08 A3006 RMK A01 T01120075  RH  078%=      5-min Rain = 0
KVP1 240151Z 02004KT 11/08 A3006 RMK A01 T01120075  RH  078%=      5-min Rain = 0
KVP1 240152Z 01005KT 11/08 A3006 RMK A01 T01120075  RH  078%=      5-min Rain = 0
KVP1 240153Z 01005KT 11/08 A3006 RMK A01 T01120075  RH  078%=      5-min Rain = 0
KVP1 240154Z 01005KT 11/08 A3006 RMK A01 T01120075  RH  078%=      5-min Rain = 0
KVP1 240155Z 01004KT 11/08 A3006 RMK A01 T01130076  RH  078%=      5-min Rain = 0
KVP1 240156Z 01005KT 11/08 A3006 RMK A01 T01130076  RH  078%=      5-min Rain = 0
KVP1 240157Z 01005KT 11/08 A3006 RMK A01 T01140077  RH  078%=      5-min Rain = 0
KVP1 240158Z 01005KT 11/08 A3006 RMK A01 T01140078  RH  078%=      5-min Rain = 0
KVP1 240159Z 01004KT 11/08 A3006 RMK A01 T01140079  RH  079%=      5-min Rain = 0
KVP1 240200Z 01004KT 11/08 A3006 RMK A01 T01140079  RH  079%=      5-min Rain = 0
KVP1 240201Z 01005KT 11/08 A3006 RMK A01 T01140079  RH  079%=      5-min Rain = 0
KVP1 240202Z 02005KT 11/08 A3006 RMK A01 T01140078  RH  078%=      5-min Rain = 0
KVP1 240203Z 02005KT 12/08 A3006 RMK A01 T01150078  RH  078%=      5-min Rain = 0
KVP1 240204Z 02005KT 12/08 A3006 RMK A01 T01160078  RH  078%=      5-min Rain = 0
KVP1 240205Z 02006KT 12/08 A3006 RMK A01 T01160077  RH  077%=      5-min Rain = 0
KVP1 240206Z 02006KT 12/08 A3006 RMK A01 T01170076  RH  076%=      5-min Rain = 0
KVP1 240207Z 02006KT 12/08 A3006 RMK A01 T01170076  RH  076%=      5-min Rain = 0
KVP1 240208Z 02006KT 12/07 A3006 RMK A01 T01170074  RH  075%=      5-min Rain = 0
KVP1 240209Z 02007KT 12/07 A3006 RMK A01 T01170073  RH  074%=      5-min Rain = 0
KVP1 240210Z 02006KT 12/07 A3006 RMK A01 T01180073  RH  074%=      5-min Rain = 0
KVP1 240211Z 02007KT 12/07 A3006 RMK A01 T01180072  RH  073%=      5-min Rain = 0
KVP1 240212Z 02007KT 12/07 A3006 RMK A01 T01180070  RH  072%=      5-min Rain = 0
KVP1 240213Z 02007KT 12/07 A3006 RMK A01 T01180069  RH  072%=      5-min Rain = 0
KVP1 240214Z 02007KT 12/07 A3006 RMK A01 T01190068  RH  071%=      5-min Rain = 0
KVP1 240215Z 02007KT 12/07 A3006 RMK A01 T01190067  RH  071%=      5-min Rain = 0
KVP1 240216Z 02007KT 12/07 A3006 RMK A01 T01190067  RH  070%=      5-min Rain = 0
KVP1 240217Z 01007KT 12/07 A3006 RMK A01 T01190065  RH  070%=      5-min Rain = 0
KVP1 240218Z 02006KT 12/07 A3006 RMK A01 T01200065  RH  069%=      5-min Rain = 0
KVP1 240219Z 02006KT 12/07 A3006 RMK A01 T01200066  RH  070%=      5-min Rain = 0
KVP1 240220Z 01007KT 12/07 A3006 RMK A01 T01200065  RH  069%=      5-min Rain = 0
KVP1 240221Z 02006KT 12/06 A3006 RMK A01 T01190064  RH  069%=      5-min Rain = 0
KVP1 240222Z 01006KT 12/07 A3006 RMK A01 T01190065  RH  069%=      5-min Rain = 0
KVP1 240223Z 01006KT 12/06 A3006 RMK A01 T01190064  RH  069%=      5-min Rain = 0
KVP1 240224Z 01007KT 12/06 A3006 RMK A01 T01190064  RH  069%=      5-min Rain = 0
KVP1 240225Z 01006KT 12/06 A3006 RMK A01 T01190064  RH  069%=      5-min Rain = 0
KVP1 240226Z 01007KT 12/06 A3005 RMK A01 T01190064  RH  069%=      5-min Rain = 0
KVP1 240227Z 01007KT 12/06 A3005 RMK A01 T01190064  RH  069%=      5-min Rain = 0
KVP1 240228Z 01008KT 12/06 A3005 RMK A01 T01180064  RH  069%=      5-min Rain = 0
KVP1 240229Z 00008KT 12/06 A3005 RMK A01 T01180063  RH  069%=      5-min Rain = 0
KVP1 240230Z 01007KT 12/06 A3005 RMK A01 T01180064  RH  069%=      5-min Rain = 0
KVP1 240231Z 00007KT 12/06 A3005 RMK A01 T01180064  RH  069%=      5-min Rain = 0
KVP1 240232Z 01006KT 12/06 A3005 RMK A01 T01180064  RH  069%=      5-min Rain = 0
KVP1 240233Z 00006KT 12/07 A3005 RMK A01 T01180065  RH  070%=      5-min Rain = 0
KVP1 240234Z 00005KT 12/07 A3005 RMK A01 T01180065  RH  070%=      5-min Rain = 0
KVP1 240235Z 01007KT 12/07 A3005 RMK A01 T01180065  RH  070%=      5-min Rain = 0
KVP1 240236Z 00006KT 12/07 A3005 RMK A01 T01180065  RH  070%=      5-min Rain = 0
KVP1 240237Z 00006KT 12/07 A3005 RMK A01 T01180066  RH  070%=      5-min Rain = 0
KVP1 240238Z 01007KT 12/07 A3005 RMK A01 T01180065  RH  070%=      5-min Rain = 0
KVP1 240239Z 00006KT 12/07 A3005 RMK A01 T01180066  RH  070%=      5-min Rain = 0
KVP1 240240Z 01007KT 12/07 A3005 RMK A01 T01170065  RH  070%=      5-min Rain = 0
KVP1 240241Z 01007KT 12/06 A3005 RMK A01 T01180064  RH  070%=      5-min Rain = 0
KVP1 240242Z 01007KT 12/06 A3005 RMK A01 T01180064  RH  070%=      5-min Rain = 0
KVP1 240243Z 01006KT 12/06 A3005 RMK A01 T01180064  RH  070%=      5-min Rain = 0
KVP1 240244Z 01007KT 12/06 A3005 RMK A01 T01170064  RH  070%=      5-min Rain = 0
KVP1 240245Z 01007KT 12/07 A3005 RMK A01 T01170065  RH  070%=      5-min Rain = 0
KVP1 240246Z 01006KT 12/07 A3005 RMK A01 T01170065  RH  070%=      5-min Rain = 0
KVP1 240247Z 01006KT 12/07 A3005 RMK A01 T01170065  RH  070%=      5-min Rain = 0
KVP1 240248Z 01005KT 12/07 A3005 RMK A01 T01170065  RH  071%=      5-min Rain = 0
KVP1 240249Z 01006KT 12/07 A3005 RMK A01 T01170065  RH  070%=      5-min Rain = 0
KVP1 240250Z 01007KT 12/06 A3005 RMK A01 T01170064  RH  070%=      5-min Rain = 0
KVP1 240251Z 01007KT 12/06 A3005 RMK A01 T01170064  RH  070%=      5-min Rain = 0
KVP1 240252Z 01007KT 12/06 A3005 RMK A01 T01170064  RH  070%=      5-min Rain = 0
KVP1 240253Z 01006KT 12/06 A3005 RMK A01 T01170064  RH  070%=      5-min Rain = 0
KVP1 240254Z 01007KT 12/06 A3005 RMK A01 T01170064  RH  070%=      5-min Rain = 0
KVP1 240255Z 01008KT 12/06 A3005 RMK A01 T01180064  RH  070%=      5-min Rain = 0
KVP1 240256Z 01007KT 12/06 A3005 RMK A01 T01180064  RH  070%=      5-min Rain = 0
KVP1 240257Z 01006KT 12/07 A3005 RMK A01 T01180065  RH  070%=      5-min Rain = 0
KVP1 240258Z 02007KT 12/07 A3005 RMK A01 T01180065  RH  070%=      5-min Rain = 0
KVP1 240259Z 02006KT 12/07 A3005 RMK A01 T01180066  RH  070%=      5-min Rain = 0
KVP1 240300Z 02007KT 12/07 A3005 RMK A01 T01170065  RH  070%=      5-min Rain = 0
KVP1 240301Z 02007KT 12/07 A3005 RMK A01 T01170065  RH  070%=      5-min Rain = 0
KVP1 240302Z 02006KT 12/06 A3005 RMK A01 T01170064  RH  070%=      5-min Rain = 0
KVP1 240303Z 02006KT 12/07 A3005 RMK A01 T01170065  RH  071%=      5-min Rain = 0
KVP1 240304Z 02006KT 12/07 A3006 RMK A01 T01170065  RH  071%=      5-min Rain = 0
KVP1 240305Z 02006KT 12/07 A3006 RMK A01 T01160065  RH  071%=      5-min Rain = 0
KVP1 240306Z 02006KT 12/06 A3006 RMK A01 T01160064  RH  071%=      5-min Rain = 0
KVP1 240307Z 02005KT 12/06 A3006 RMK A01 T01150064  RH  071%=      5-min Rain = 0
KVP1 240308Z 01005KT 12/06 A3006 RMK A01 T01150064  RH  071%=      5-min Rain = 0
KVP1 240309Z 01005KT 11/06 A3006 RMK A01 T01130063  RH  071%=      5-min Rain = 0
KVP1 240310Z 01005KT 11/06 A3006 RMK A01 T01130063  RH  072%=      5-min Rain = 0
KVP1 240311Z 00006KT 11/06 A3006 RMK A01 T01120063  RH  072%=      5-min Rain = 0
KVP1 240312Z 01005KT 11/06 A3006 RMK A01 T01120063  RH  072%=      5-min Rain = 0
KVP1 240313Z 01005KT 11/06 A3006 RMK A01 T01120063  RH  072%=      5-min Rain = 0
KVP1 240314Z 00005KT 11/06 A3006 RMK A01 T01110063  RH  072%=      5-min Rain = 0
KVP1 240315Z 00005KT 11/06 A3006 RMK A01 T01100064  RH  073%=      5-min Rain = 0
KVP1 240316Z 00005KT 11/06 A3006 RMK A01 T01090064  RH  074%=      5-min Rain = 0
KVP1 240317Z 00005KT 11/06 A3006 RMK A01 T01090064  RH  074%=      5-min Rain = 0
KVP1 240318Z 00005KT 11/06 A3006 RMK A01 T01080064  RH  074%=      5-min Rain = 0
KVP1 240319Z 36005KT 11/06 A3006 RMK A01 T01070064  RH  075%=      5-min Rain = 0
KVP1 240320Z 36005KT 11/07 A3006 RMK A01 T01060065  RH  075%=      5-min Rain = 0
KVP1 240321Z 36005KT 11/07 A3006 RMK A01 T01050065  RH  076%=      5-min Rain = 0
KVP1 240322Z 36005KT 11/07 A3006 RMK A01 T01050066  RH  077%=      5-min Rain = 0
KVP1 240323Z 35005KT 10/07 A3006 RMK A01 T01040067  RH  078%=      5-min Rain = 0
KVP1 240324Z 35006KT 10/07 A3006 RMK A01 T01030067  RH  078%=      5-min Rain = 0
KVP1 240325Z 35006KT 10/07 A3006 RMK A01 T01020067  RH  079%=      5-min Rain = 0
KVP1 240326Z 36006KT 10/07 A3006 RMK A01 T01020067  RH  079%=      5-min Rain = 0
KVP1 240327Z 36007KT 10/07 A3006 RMK A01 T01010067  RH  079%=      5-min Rain = 0
KVP1 240328Z 36006KT 10/07 A3006 RMK A01 T01010067  RH  080%=      5-min Rain = 0
KVP1 240329Z 36007KT 10/07 A3006 RMK A01 T01010067  RH  080%=      5-min Rain = 0
KVP1 240330Z 36007KT 10/07 A3006 RMK A01 T01000067  RH  080%=      5-min Rain = 0
KVP1 240331Z 00006KT 10/07 A3006 RMK A01 T00990066  RH  080%=      5-min Rain = 0
KVP1 240332Z 00008KT 10/07 A3006 RMK A01 T00990066  RH  080%=      5-min Rain = 0
KVP1 240333Z 00007KT 10/07 A3006 RMK A01 T00990065  RH  080%=      5-min Rain = 0
KVP1 240334Z 00007KT 10/06 A3006 RMK A01 T00990064  RH  079%=      5-min Rain = 0
KVP1 240335Z 00007KT 10/06 A3006 RMK A01 T00990064  RH  079%=      5-min Rain = 0
KVP1 240336Z 00006KT 10/06 A3006 RMK A01 T00990062  RH  078%=      5-min Rain = 0
KVP1 240337Z 01007KT 10/06 A3006 RMK A01 T00990062  RH  078%=      5-min Rain = 0
KVP1 240338Z 00006KT 10/06 A3006 RMK A01 T00990062  RH  078%=      5-min Rain = 0
KVP1 240339Z 01006KT 10/06 A3006 RMK A01 T00980062  RH  078%=      5-min Rain = 0
KVP1 240340Z 01006KT 10/06 A3006 RMK A01 T00970062  RH  078%=      5-min Rain = 0
KVP1 240341Z 01006KT 10/06 A3006 RMK A01 T00970062  RH  079%=      5-min Rain = 0
KVP1 240342Z 01006KT 10/06 A3006 RMK A01 T00970061  RH  079%=      5-min Rain = 0
KVP1 240343Z 01005KT 10/06 A3006 RMK A01 T00970061  RH  078%=      5-min Rain = 0
KVP1 240344Z 01005KT 10/06 A3006 RMK A01 T00970061  RH  078%=      5-min Rain = 0
KVP1 240345Z 01006KT 10/06 A3006 RMK A01 T00970061  RH  078%=      5-min Rain = 0
KVP1 240346Z 00006KT 10/06 A3006 RMK A01 T00960061  RH  078%=      5-min Rain = 0
KVP1 240347Z 01006KT 10/06 A3006 RMK A01 T00950060  RH  079%=      5-min Rain = 0
KVP1 240348Z 00006KT 10/06 A3006 RMK A01 T00950060  RH  079%=      5-min Rain = 0
KVP1 240349Z 01006KT 10/06 A3006 RMK A01 T00950060  RH  079%=      5-min Rain = 0
KVP1 240350Z 00006KT 09/06 A3006 RMK A01 T00940060  RH  079%=      5-min Rain = 0
KVP1 240351Z 01006KT 09/06 A3006 RMK A01 T00940060  RH  079%=      5-min Rain = 0
KVP1 240352Z 01007KT 09/06 A3006 RMK A01 T00940060  RH  079%=      5-min Rain = 0
KVP1 240353Z 36006KT 09/06 A3006 RMK A01 T00940060  RH  079%=      5-min Rain = 0
KVP1 240354Z 36007KT 09/06 A3006 RMK A01 T00940060  RH  079%=      5-min Rain = 0
KVP1 240355Z 00006KT 09/06 A3006 RMK A01 T00930060  RH  079%=      5-min Rain = 0
KVP1 240356Z 00007KT 09/06 A3006 RMK A01 T00930060  RH  079%=      5-min Rain = 0
KVP1 240357Z 00008KT 09/06 A3005 RMK A01 T00940060  RH  079%=      5-min Rain = 0
KVP1 240358Z 00007KT 10/06 A3005 RMK A01 T00950060  RH  079%=      5-min Rain = 0
KVP1 240359Z 00008KT 10/06 A3005 RMK A01 T00950060  RH  079%=      5-min Rain = 0
KVP1 240400Z 36008KT 09/06 A3005 RMK A01 T00940060  RH  079%=      5-min Rain = 0
KVP1 240401Z 36008KT 09/06 A3005 RMK A01 T00940059  RH  079%=      5-min Rain = 0
KVP1 240402Z 36007KT 09/06 A3005 RMK A01 T00940060  RH  079%=      5-min Rain = 0
KVP1 240403Z 35008KT 09/06 A3005 RMK A01 T00940060  RH  079%=      5-min Rain = 0
KVP1 240404Z 36007KT 09/06 A3004 RMK A01 T00940060  RH  079%=      5-min Rain = 0
KVP1 240405Z 35008KT 09/06 A3004 RMK A01 T00940061  RH  080%=      5-min Rain = 0
KVP1 240406Z 35007KT 09/06 A3004 RMK A01 T00930061  RH  080%=      5-min Rain = 0
KVP1 240407Z 35006KT 09/06 A3004 RMK A01 T00920061  RH  081%=      5-min Rain = 0
KVP1 240408Z 35006KT 09/06 A3004 RMK A01 T00900061  RH  082%=      5-min Rain = 0
KVP1 240409Z 35006KT 09/06 A3004 RMK A01 T00880061  RH  083%=      5-min Rain = 0
KVP1 240410Z 35006KT 09/06 A3004 RMK A01 T00860061  RH  084%=      5-min Rain = 0
KVP1 240411Z 34006KT 09/06 A3004 RMK A01 T00850060  RH  084%=      5-min Rain = 0
KVP1 240412Z 34007KT 08/06 A3004 RMK A01 T00840060  RH  085%=      5-min Rain = 0
KVP1 240413Z 35006KT 08/06 A3004 RMK A01 T00820059  RH  086%=      5-min Rain = 0
KVP1 240414Z 35007KT 08/06 A3004 RMK A01 T00800059  RH  086%=      5-min Rain = 0
KVP1 240415Z 35007KT 08/06 A3004 RMK A01 T00800059  RH  087%=      5-min Rain = 0
KVP1 240416Z 35006KT 08/06 A3004 RMK A01 T00790059  RH  087%=      5-min Rain = 0
KVP1 240417Z 35005KT 08/06 A3004 RMK A01 T00780058  RH  087%=      5-min Rain = 0
KVP1 240418Z 35005KT 08/06 A3005 RMK A01 T00780058  RH  087%=      5-min Rain = 0
KVP1 240419Z 34005KT 08/06 A3005 RMK A01 T00780058  RH  087%=      5-min Rain = 0
KVP1 240420Z 35005KT 08/06 A3005 RMK A01 T00780058  RH  087%=      5-min Rain = 0
KVP1 240421Z 36004KT 08/06 A3005 RMK A01 T00780058  RH  087%=      5-min Rain = 0
KVP1 240422Z 36005KT 08/06 A3005 RMK A01 T00780057  RH  087%=      5-min Rain = 0
KVP1 240423Z 00005KT 08/06 A3005 RMK A01 T00780056  RH  086%=      5-min Rain = 0
KVP1 240424Z 00004KT 08/06 A3006 RMK A01 T00790056  RH  086%=      5-min Rain = 0
KVP1 240425Z 01004KT 08/06 A3006 RMK A01 T00790056  RH  086%=      5-min Rain = 0
KVP1 240426Z 01004KT 08/06 A3006 RMK A01 T00800057  RH  085%=      5-min Rain = 0
KVP1 240427Z 01003KT 08/06 A3006 RMK A01 T00800056  RH  085%=      5-min Rain = 0
KVP1 240428Z 01004KT 08/06 A3006 RMK A01 T00810057  RH  085%=      5-min Rain = 0
KVP1 240429Z 02004KT 08/06 A3006 RMK A01 T00810057  RH  085%=      5-min Rain = 0
KVP1 240430Z 02003KT 08/06 A3007 RMK A01 T00820057  RH  084%=      5-min Rain = 0
KVP1 240431Z 02003KT 08/06 A3007 RMK A01 T00820056  RH  084%=      5-min Rain = 0
KVP1 240432Z 03003KT 08/06 A3007 RMK A01 T00820056  RH  084%=      5-min Rain = 0
KVP1 240433Z 03003KT 08/06 A3007 RMK A01 T00810056  RH  084%=      5-min Rain = 0
KVP1 240434Z 04002KT 08/06 A3007 RMK A01 T00810056  RH  084%=      5-min Rain = 0
KVP1 240435Z 05002KT 08/06 A3007 RMK A01 T00810056  RH  085%=      5-min Rain = 0
KVP1 240436Z 06002KT 08/06 A3008 RMK A01 T00790056  RH  085%=      5-min Rain = 0
KVP1 240437Z 08002KT 08/06 A3008 RMK A01 T00780057  RH  086%=      5-min Rain = 0
KVP1 240438Z 10002KT 08/06 A3008 RMK A01 T00770057  RH  087%=      5-min Rain = 0
KVP1 240439Z 12002KT 08/06 A3009 RMK A01 T00760056  RH  087%=      5-min Rain = 0
KVP1 240440Z 12002KT 08/05 A3009 RMK A01 T00750054  RH  087%=      5-min Rain = 0
KVP1 240441Z 12002KT 07/05 A3009 RMK A01 T00730052  RH  087%=      5-min Rain = 0
KVP1 240442Z 13001KT 07/05 A3009 RMK A01 T00710052  RH  088%=      5-min Rain = 0
KVP1 240443Z 12000KT 07/05 A3009 RMK A01 T00700052  RH  088%=      5-min Rain = 0
KVP1 240444Z 10000KT 07/05 A3009 RMK A01 T00700053  RH  089%=      5-min Rain = 0
KVP1 240445Z 00000KT 07/05 A3009 RMK A01 T00700054  RH  089%=      5-min Rain = 0
KVP1 240446Z 00000KT 07/05 A3009 RMK A01 T00700053  RH  089%=      5-min Rain = 0
KVP1 240447Z 00000KT 07/05 A3009 RMK A01 T00710054  RH  089%=      5-min Rain = 0
KVP1 240448Z 35001KT 07/05 A3009 RMK A01 T00720053  RH  088%=      5-min Rain = 0
KVP1 240449Z 34001KT 07/05 A3009 RMK A01 T00710052  RH  087%=      5-min Rain = 0
KVP1 240450Z 35002KT 07/05 A3008 RMK A01 T00690049  RH  087%=      5-min Rain = 0
KVP1 240451Z 35002KT 07/05 A3008 RMK A01 T00660046  RH  087%=      5-min Rain = 0
KVP1 240452Z 35003KT 06/05 A3008 RMK A01 T00640047  RH  089%=      5-min Rain = 0
KVP1 240453Z 35003KT 06/05 A3008 RMK A01 T00630048  RH  090%=      5-min Rain = 0
KVP1 240454Z 34003KT 06/05 A3008 RMK A01 T00620048  RH  091%=      5-min Rain = 0
KVP1 240455Z 34003KT 06/05 A3008 RMK A01 T00620049  RH  091%=      5-min Rain = 0
KVP1 240456Z 34003KT 06/05 A3008 RMK A01 T00620049  RH  091%=      5-min Rain = 0
KVP1 240457Z 34003KT 06/05 A3008 RMK A01 T00620049  RH  092%=      5-min Rain = 0
KVP1 240458Z 34003KT 06/05 A3008 RMK A01 T00610049  RH  092%=      5-min Rain = 0
KVP1 240459Z 34003KT 06/05 A3008 RMK A01 T00620051  RH  093%=      5-min Rain = 0

Page generated in 0.0878 seconds.